Time,TemperatureF,DewpointF,PressureIn,WindDirection,WindDirectionDegrees,WindSpeedMPH,WindSpeedGustMPH,Humidity,HourlyPrecipIn,Conditions,Clouds,dailyrainin,SolarRadiationWatts/m^2,SoftwareType,DateUTC
2013-04-09 00:00:00,63.2,56.2,29.85,East,101,4.0,5.0,78,0.00,,,0.00,0,Wunderground v.1.15,2013-04-09 05:00:00,
2013-04-09 00:02:00,63.2,56.6,29.84,ESE,117,4.0,6.0,79,2.38,,,0.03,0,Wunderground v.1.15,2013-04-09 05:02:00,
2013-04-09 00:05:00,63.0,57.4,29.84,East,95,4.0,6.0,82,0.34,,,0.06,0,Wunderground v.1.15,2013-04-09 05:05:00,
2013-04-09 00:06:00,63.0,57.8,29.84,East,88,4.0,6.0,83,0.26,,,0.06,0,Wunderground v.1.15,2013-04-09 05:06:00,
2013-04-09 00:08:00,62.7,57.5,29.83,East,86,4.0,6.0,83,0.13,,,0.06,0,Wunderground v.1.15,2013-04-09 05:08:00,
2013-04-09 00:13:00,62.2,58.0,29.83,East,83,4.0,6.0,86,0.06,,,0.06,0,Wunderground v.1.15,2013-04-09 05:13:00,
2013-04-09 00:14:00,62.1,57.9,29.82,East,81,4.0,7.0,86,0.06,,,0.06,0,Wunderground v.1.15,2013-04-09 05:14:00,
2013-04-09 00:15:00,62.1,58.2,29.82,East,79,4.0,7.0,87,0.06,,,0.07,0,Wunderground v.1.15,2013-04-09 05:15:00,
2013-04-09 00:16:00,62.0,58.1,29.82,East,94,4.0,7.0,87,0.06,,,0.07,0,Wunderground v.1.15,2013-04-09 05:16:00,
2013-04-09 00:21:00,61.9,58.3,29.82,ENE,61,5.0,5.0,88,0.06,,,0.07,0,Wunderground v.1.15,2013-04-09 05:21:00,
2013-04-09 00:22:00,61.9,58.6,29.82,NE,54,5.0,5.0,89,0.06,,,0.07,0,Wunderground v.1.15,2013-04-09 05:22:00,
2013-04-09 00:24:00,61.8,58.5,29.82,NE,38,5.0,6.0,89,0.06,,,0.07,0,Wunderground v.1.15,2013-04-09 05:24:00,
2013-04-09 00:27:00,61.8,58.5,29.82,ENE,70,5.0,6.0,89,0.05,,,0.07,0,Wunderground v.1.15,2013-04-09 05:27:00,
2013-04-09 00:28:00,61.7,58.7,29.82,ENE,61,5.0,6.0,90,0.04,,,0.07,0,Wunderground v.1.15,2013-04-09 05:28:00,
2013-04-09 00:30:00,61.7,58.7,29.82,ENE,75,5.0,5.0,90,0.04,,,0.07,0,Wunderground v.1.15,2013-04-09 05:30:00,
2013-04-09 00:31:00,61.7,58.7,29.82,East,81,5.0,5.0,90,0.04,,,0.07,0,Wunderground v.1.15,2013-04-09 05:31:00,
2013-04-09 00:34:00,61.6,58.6,29.82,ENE,72,5.0,5.0,90,0.00,,,0.07,0,Wunderground v.1.15,2013-04-09 05:34:00,
2013-04-09 00:36:00,61.5,58.5,29.82,NE,53,5.0,7.0,90,0.00,,,0.07,0,Wunderground v.1.15,2013-04-09 05:36:00,
2013-04-09 00:38:00,61.4,58.7,29.82,ENE,60,6.0,11.0,91,0.00,,,0.07,0,Wunderground v.1.15,2013-04-09 05:38:00,
2013-04-09 00:39:00,61.4,58.7,29.82,NE,49,6.0,11.0,91,0.00,,,0.07,0,Wunderground v.1.15,2013-04-09 05:39:00,
2013-04-09 00:42:00,61.2,58.2,29.81,ENE,57,7.0,10.0,90,0.00,,,0.07,0,Wunderground v.1.15,2013-04-09 05:42:00,
2013-04-09 00:43:00,61.1,58.1,29.81,NE,53,8.0,11.0,90,0.00,,,0.07,0,Wunderground v.1.15,2013-04-09 05:43:00,
2013-04-09 00:46:00,60.8,58.2,29.82,ENE,63,8.0,11.0,91,0.00,,,0.07,0,Wunderground v.1.15,2013-04-09 05:46:00,
2013-04-09 00:47:00,60.7,58.1,29.82,East,83,8.0,11.0,91,0.00,,,0.07,0,Wunderground v.1.15,2013-04-09 05:47:00,
2013-04-09 00:48:00,60.6,58.0,29.82,ENE,78,8.0,11.0,91,0.00,,,0.07,0,Wunderground v.1.15,2013-04-09 05:48:00,
2013-04-09 00:52:00,60.3,57.7,29.82,NE,34,7.0,11.0,91,1.21,,,0.10,0,Wunderground v.1.15,2013-04-09 05:52:00,
2013-04-09 00:53:00,60.1,57.2,29.81,ENE,57,7.0,13.0,90,1.69,,,0.13,0,Wunderground v.1.15,2013-04-09 05:53:00,
2013-04-09 00:55:00,59.4,56.5,29.82,ENE,59,8.0,14.0,90,0.71,,,0.16,0,Wunderground v.1.15,2013-04-09 05:55:00,
2013-04-09 00:56:00,59.1,56.2,29.82,NE,49,9.0,14.0,90,0.32,,,0.16,0,Wunderground v.1.15,2013-04-09 05:56:00,
2013-04-09 00:59:00,58.7,56.1,29.82,ENE,70,10.0,14.0,91,0.13,,,0.16,0,Wunderground v.1.15,2013-04-09 05:59:00,
2013-04-09 01:01:00,58.7,56.4,29.82,NE,51,10.0,10.0,92,0.09,,,0.16,0,Wunderground v.1.15,2013-04-09 06:01:00,
2013-04-09 01:04:00,58.4,56.1,29.82,ENE,57,10.0,11.0,92,0.06,,,0.16,0,Wunderground v.1.15,2013-04-09 06:04:00,
2013-04-09 01:05:00,58.2,55.9,29.83,NE,39,9.0,11.0,92,0.05,,,0.16,0,Wunderground v.1.15,2013-04-09 06:05:00,
2013-04-09 01:06:00,58.1,55.8,29.83,ENE,71,9.0,11.0,92,0.05,,,0.16,0,Wunderground v.1.15,2013-04-09 06:06:00,
2013-04-09 01:11:00,58.0,55.7,29.82,NE,51,8.0,9.0,92,0.04,,,0.16,0,Wunderground v.1.15,2013-04-09 06:11:00,
2013-04-09 01:12:00,58.1,56.1,29.82,ENE,64,8.0,9.0,93,0.00,,,0.16,0,Wunderground v.1.15,2013-04-09 06:12:00,
2013-04-09 01:13:00,58.1,56.1,29.82,ENE,62,8.0,9.0,93,0.00,,,0.16,0,Wunderground v.1.15,2013-04-09 06:13:00,
2013-04-09 01:17:00,58.4,56.4,29.83,ENE,69,8.0,14.0,93,0.00,,,0.17,0,Wunderground v.1.15,2013-04-09 06:17:00,
2013-04-09 01:18:00,58.4,56.4,29.83,ENE,65,9.0,14.0,93,0.00,,,0.17,0,Wunderground v.1.15,2013-04-09 06:18:00,
2013-04-09 01:20:00,58.4,56.4,29.82,ENE,71,8.0,8.0,93,0.00,,,0.17,0,Wunderground v.1.15,2013-04-09 06:20:00,
2013-04-09 01:23:00,58.5,56.5,29.82,NE,38,8.0,8.0,93,0.14,,,0.18,0,Wunderground v.1.15,2013-04-09 06:23:00,
2013-04-09 01:24:00,58.4,56.4,29.83,NE,42,8.0,8.0,93,0.14,,,0.18,0,Wunderground v.1.15,2013-04-09 06:24:00,
2013-04-09 01:27:00,58.1,55.8,29.83,ENE,57,7.0,8.0,92,0.09,,,0.18,0,Wunderground v.1.15,2013-04-09 06:27:00,
2013-04-09 01:28:00,58.0,55.7,29.83,ENE,57,6.0,8.0,92,0.08,,,0.18,0,Wunderground v.1.15,2013-04-09 06:28:00,
2013-04-09 01:31:00,57.7,55.4,29.83,ENE,59,5.0,6.0,92,0.06,,,0.18,0,Wunderground v.1.15,2013-04-09 06:31:00,
2013-04-09 01:32:00,57.7,55.7,29.83,ENE,59,5.0,6.0,93,0.05,,,0.18,0,Wunderground v.1.15,2013-04-09 06:32:00,
2013-04-09 01:34:00,57.6,55.6,29.83,ENE,58,4.0,6.0,93,0.04,,,0.18,0,Wunderground v.1.15,2013-04-09 06:34:00,
2013-04-09 01:36:00,57.5,55.5,29.83,ENE,75,4.0,6.0,93,0.04,,,0.18,0,Wunderground v.1.15,2013-04-09 06:36:00,
2013-04-09 01:40:00,57.6,55.6,29.83,ENE,74,5.0,5.0,93,0.00,,,0.18,0,Wunderground v.1.15,2013-04-09 06:40:00,
2013-04-09 01:42:00,57.6,55.6,29.83,East,87,5.0,6.0,93,0.00,,,0.18,0,Wunderground v.1.15,2013-04-09 06:42:00,
2013-04-09 01:46:00,57.6,55.6,29.82,NE,48,6.0,10.0,93,0.00,,,0.18,0,Wunderground v.1.15,2013-04-09 06:46:00,
2013-04-09 01:49:00,57.5,55.8,29.82,ENE,65,6.0,10.0,94,0.00,,,0.18,0,Wunderground v.1.15,2013-04-09 06:49:00,
2013-04-09 01:52:00,57.4,55.7,29.83,ENE,68,6.0,7.0,94,0.00,,,0.19,0,Wunderground v.1.15,2013-04-09 06:52:00,
2013-04-09 01:55:00,57.3,55.6,29.83,ENE,68,6.0,7.0,94,0.00,,,0.19,0,Wunderground v.1.15,2013-04-09 06:55:00,
2013-04-09 01:57:00,57.3,55.6,29.83,East,79,5.0,7.0,94,0.00,,,0.19,0,Wunderground v.1.15,2013-04-09 06:57:00,
2013-04-09 01:58:00,57.3,55.6,29.83,East,98,5.0,7.0,94,0.00,,,0.19,0,Wunderground v.1.15,2013-04-09 06:58:00,
2013-04-09 01:59:00,57.3,55.6,29.83,East,95,5.0,7.0,94,0.00,,,0.19,0,Wunderground v.1.15,2013-04-09 06:59:00,
2013-04-09 02:01:00,57.3,55.6,29.83,East,94,4.0,17.0,94,0.00,,,0.19,0,Wunderground v.1.15,2013-04-09 07:01:00,
2013-04-09 02:04:00,57.3,55.6,29.84,East,87,4.0,17.0,94,0.00,,,0.19,0,Wunderground v.1.15,2013-04-09 07:04:00,
2013-04-09 02:06:00,57.4,55.7,29.83,East,88,4.0,17.0,94,0.00,,,0.19,0,Wunderground v.1.15,2013-04-09 07:06:00,
2013-04-09 02:07:00,57.4,55.7,29.83,East,86,5.0,17.0,94,0.00,,,0.19,0,Wunderground v.1.15,2013-04-09 07:07:00,
2013-04-09 02:11:00,57.5,55.8,29.84,ESE,105,5.0,5.0,94,0.00,,,0.19,0,Wunderground v.1.15,2013-04-09 07:11:00,
2013-04-09 02:13:00,57.5,56.1,29.84,ESE,105,5.0,5.0,95,0.00,,,0.19,0,Wunderground v.1.15,2013-04-09 07:13:00,
2013-04-09 02:14:00,57.5,56.1,29.84,East,96,5.0,6.0,95,0.00,,,0.19,0,Wunderground v.1.15,2013-04-09 07:14:00,
2013-04-09 02:15:00,57.6,56.2,29.84,East,84,5.0,6.0,95,0.00,,,0.19,0,Wunderground v.1.15,2013-04-09 07:15:00,
2013-04-09 02:18:00,57.6,56.2,29.83,East,86,5.0,8.0,95,0.00,,,0.19,0,Wunderground v.1.15,2013-04-09 07:18:00,
2013-04-09 02:20:00,57.7,56.3,29.83,ENE,76,6.0,8.0,95,0.00,,,0.20,0,Wunderground v.1.15,2013-04-09 07:20:00,
2013-04-09 02:21:00,57.7,56.3,29.83,ENE,73,6.0,8.0,95,0.00,,,0.20,0,Wunderground v.1.15,2013-04-09 07:21:00,
2013-04-09 02:22:00,57.7,56.3,29.83,East,88,7.0,8.0,95,0.22,,,0.21,0,Wunderground v.1.15,2013-04-09 07:22:00,
2013-04-09 02:26:00,57.7,56.3,29.82,ENE,67,8.0,10.0,95,0.50,,,0.27,0,Wunderground v.1.15,2013-04-09 07:26:00,
2013-04-09 02:27:00,57.7,56.3,29.83,ENE,76,8.0,10.0,95,0.47,,,0.28,0,Wunderground v.1.15,2013-04-09 07:27:00,
2013-04-09 02:28:00,57.7,56.3,29.83,ENE,74,8.0,11.0,95,0.56,,,0.29,0,Wunderground v.1.15,2013-04-09 07:28:00,
2013-04-09 02:31:00,57.7,56.3,29.83,East,90,8.0,8.0,95,0.28,,,0.30,0,Wunderground v.1.15,2013-04-09 07:31:00,
2013-04-09 02:34:00,57.6,56.2,29.83,ENE,72,8.0,11.0,95,0.12,,,0.30,0,Wunderground v.1.15,2013-04-09 07:34:00,
2013-04-09 02:35:00,57.6,56.2,29.83,ENE,74,8.0,11.0,95,0.10,,,0.30,0,Wunderground v.1.15,2013-04-09 07:35:00,
2013-04-09 02:37:00,57.6,56.2,29.82,ENE,71,8.0,12.0,95,0.07,,,0.30,0,Wunderground v.1.15,2013-04-09 07:37:00,
2013-04-09 02:39:00,57.5,56.1,29.82,ENE,59,8.0,12.0,95,0.06,,,0.30,0,Wunderground v.1.15,2013-04-09 07:39:00,
2013-04-09 02:41:00,57.5,56.1,29.82,ENE,63,9.0,10.0,95,0.05,,,0.30,0,Wunderground v.1.15,2013-04-09 07:41:00,
2013-04-09 02:44:00,57.5,56.1,29.82,ENE,78,9.0,10.0,95,0.04,,,0.30,0,Wunderground v.1.15,2013-04-09 07:44:00,
2013-04-09 02:45:00,57.5,56.1,29.82,East,86,9.0,10.0,95,0.04,,,0.30,0,Wunderground v.1.15,2013-04-09 07:45:00,
2013-04-09 02:47:00,57.5,56.1,29.82,East,84,9.0,10.0,95,0.00,,,0.30,0,Wunderground v.1.15,2013-04-09 07:47:00,
2013-04-09 02:50:00,57.5,56.1,29.82,ENE,69,8.0,8.0,95,0.00,,,0.30,0,Wunderground v.1.15,2013-04-09 07:50:00,
2013-04-09 02:52:00,57.4,56.0,29.82,NE,47,8.0,10.0,95,0.00,,,0.30,0,Wunderground v.1.15,2013-04-09 07:52:00,
2013-04-09 02:53:00,57.4,56.0,29.82,ENE,69,8.0,10.0,95,0.00,,,0.30,0,Wunderground v.1.15,2013-04-09 07:53:00,
2013-04-09 02:54:00,57.4,56.0,29.82,NE,46,8.0,11.0,95,0.00,,,0.30,0,Wunderground v.1.15,2013-04-09 07:54:00,
2013-04-09 02:57:00,57.3,55.9,29.82,ENE,62,8.0,11.0,95,0.00,,,0.30,0,Wunderground v.1.15,2013-04-09 07:57:00,
2013-04-09 02:59:00,57.3,55.9,29.82,ENE,66,8.0,13.0,95,0.00,,,0.30,0,Wunderground v.1.15,2013-04-09 07:59:00,
2013-04-09 03:00:00,57.3,55.9,29.82,NE,47,9.0,9.0,95,0.00,,,0.30,0,Wunderground v.1.15,2013-04-09 08:00:00,
2013-04-09 03:01:00,57.3,55.9,29.82,ENE,65,9.0,14.0,95,0.00,,,0.30,0,Wunderground v.1.15,2013-04-09 08:01:00,
2013-04-09 03:03:00,57.2,55.8,29.82,ENE,62,9.0,14.0,95,0.00,,,0.30,0,Wunderground v.1.15,2013-04-09 08:03:00,
2013-04-09 03:05:00,57.2,55.8,29.82,ENE,69,9.0,14.0,95,0.00,,,0.30,0,Wunderground v.1.15,2013-04-09 08:05:00,
2013-04-09 03:10:00,57.1,55.7,29.82,ENE,57,8.0,8.0,95,0.00,,,0.30,0,Wunderground v.1.15,2013-04-09 08:10:00,
2013-04-09 03:12:00,57.0,55.6,29.81,ENE,57,7.0,8.0,95,0.00,,,0.30,0,Wunderground v.1.15,2013-04-09 08:12:00,
2013-04-09 03:14:00,57.0,55.6,29.81,ENE,57,7.0,8.0,95,0.00,,,0.30,0,Wunderground v.1.15,2013-04-09 08:14:00,
2013-04-09 03:16:00,56.9,55.5,29.81,NE,46,8.0,10.0,95,0.00,,,0.30,0,Wunderground v.1.15,2013-04-09 08:16:00,
2013-04-09 03:17:00,57.0,55.6,29.81,NE,45,8.0,10.0,95,0.00,,,0.30,0,Wunderground v.1.15,2013-04-09 08:17:00,
2013-04-09 03:20:00,56.8,55.4,29.81,NE,46,9.0,10.0,95,0.00,,,0.30,0,Wunderground v.1.15,2013-04-09 08:20:00,
2013-04-09 03:22:00,56.8,55.4,29.81,NE,52,9.0,11.0,95,0.00,,,0.30,0,Wunderground v.1.15,2013-04-09 08:22:00,
2013-04-09 03:26:00,56.6,55.2,29.81,NE,49,10.0,11.0,95,0.00,,,0.30,0,Wunderground v.1.15,2013-04-09 08:26:00,
2013-04-09 03:28:00,56.3,54.9,29.81,NE,42,9.0,11.0,95,0.00,,,0.30,0,Wunderground v.1.15,2013-04-09 08:28:00,
2013-04-09 03:29:00,56.1,54.7,29.81,North,11,9.0,11.0,95,0.00,,,0.30,0,Wunderground v.1.15,2013-04-09 08:29:00,
2013-04-09 03:30:00,56.0,54.6,29.81,NE,49,9.0,9.0,95,0.00,,,0.30,0,Wunderground v.1.15,2013-04-09 08:30:00,
2013-04-09 03:32:00,55.9,54.5,29.81,NE,54,8.0,9.0,95,0.00,,,0.30,0,Wunderground v.1.15,2013-04-09 08:32:00,
2013-04-09 03:37:00,55.6,54.2,29.81,NE,44,7.0,9.0,95,0.00,,,0.30,0,Wunderground v.1.15,2013-04-09 08:37:00,
2013-04-09 03:39:00,55.5,54.1,29.81,NNE,28,7.0,9.0,95,0.00,,,0.30,0,Wunderground v.1.15,2013-04-09 08:39:00,
2013-04-09 03:41:00,55.4,54.0,29.81,NE,49,7.0,7.0,95,0.00,,,0.30,0,Wunderground v.1.15,2013-04-09 08:41:00,
2013-04-09 03:42:00,55.3,53.9,29.81,NE,34,7.0,7.0,95,0.00,,,0.30,0,Wunderground v.1.15,2013-04-09 08:42:00,
2013-04-09 03:44:00,55.2,53.8,29.82,NNE,21,7.0,7.0,95,0.00,,,0.30,0,Wunderground v.1.15,2013-04-09 08:44:00,
2013-04-09 03:46:00,55.1,53.7,29.81,NE,34,7.0,7.0,95,0.00,,,0.30,0,Wunderground v.1.15,2013-04-09 08:46:00,
2013-04-09 03:49:00,55.0,53.6,29.82,NE,46,7.0,8.0,95,0.00,,,0.30,0,Wunderground v.1.15,2013-04-09 08:49:00,
2013-04-09 03:50:00,55.0,53.6,29.82,NE,42,7.0,7.0,95,0.00,,,0.30,0,Wunderground v.1.15,2013-04-09 08:50:00,
2013-04-09 03:54:00,54.8,53.4,29.82,NE,43,8.0,12.0,95,0.00,,,0.30,0,Wunderground v.1.15,2013-04-09 08:54:00,
2013-04-09 03:57:00,54.6,53.5,29.82,NNE,17,8.0,12.0,96,0.00,,,0.30,0,Wunderground v.1.15,2013-04-09 08:57:00,
2013-04-09 03:59:00,54.6,53.5,29.82,NE,44,9.0,12.0,96,0.00,,,0.30,0,Wunderground v.1.15,2013-04-09 08:59:00,
2013-04-09 04:02:00,54.4,53.0,29.81,NE,54,9.0,16.0,95,0.00,,,0.30,0,Wunderground v.1.15,2013-04-09 09:02:00,
2013-04-09 04:03:00,54.4,53.0,29.82,NNE,24,9.0,16.0,95,0.00,,,0.30,0,Wunderground v.1.15,2013-04-09 09:03:00,
2013-04-09 04:05:00,54.2,52.8,29.82,NE,46,9.0,16.0,95,0.00,,,0.30,0,Wunderground v.1.15,2013-04-09 09:05:00,
2013-04-09 04:08:00,54.1,53.0,29.82,NNE,29,8.0,16.0,96,0.00,,,0.30,0,Wunderground v.1.15,2013-04-09 09:08:00,
2013-04-09 04:11:00,54.0,52.9,29.82,NNE,30,8.0,8.0,96,0.00,,,0.30,0,Wunderground v.1.15,2013-04-09 09:11:00,
2013-04-09 04:15:00,53.8,52.4,29.83,NNE,17,7.0,9.0,95,0.00,,,0.30,0,Wunderground v.1.15,2013-04-09 09:15:00,
2013-04-09 04:17:00,53.8,52.7,29.83,North,355,7.0,9.0,96,0.00,,,0.30,0,Wunderground v.1.15,2013-04-09 09:17:00,
2013-04-09 04:20:00,53.7,52.6,29.83,NW,313,6.0,6.0,96,0.00,,,0.31,0,Wunderground v.1.15,2013-04-09 09:20:00,
2013-04-09 04:22:00,53.7,52.6,29.84,NW,322,6.0,6.0,96,0.00,,,0.31,0,Wunderground v.1.15,2013-04-09 09:22:00,
2013-04-09 04:25:00,53.6,52.5,29.84,NNW,347,5.0,7.0,96,0.00,,,0.31,0,Wunderground v.1.15,2013-04-09 09:25:00,
2013-04-09 04:26:00,53.6,52.5,29.84,North,355,5.0,7.0,96,0.00,,,0.31,0,Wunderground v.1.15,2013-04-09 09:26:00,
2013-04-09 04:27:00,53.5,52.4,29.84,North,360,5.0,7.0,96,0.00,,,0.31,0,Wunderground v.1.15,2013-04-09 09:27:00,
2013-04-09 04:29:00,53.4,52.3,29.83,NNE,27,5.0,7.0,96,0.00,,,0.31,0,Wunderground v.1.15,2013-04-09 09:29:00,
2013-04-09 04:30:00,53.4,52.3,29.83,NE,36,5.0,9.0,96,0.00,,,0.31,0,Wunderground v.1.15,2013-04-09 09:30:00,
2013-04-09 04:33:00,53.3,52.2,29.82,NE,46,7.0,9.0,96,0.00,,,0.31,0,Wunderground v.1.15,2013-04-09 09:33:00,
2013-04-09 04:34:00,53.3,52.2,29.82,NE,44,7.0,9.0,96,0.00,,,0.31,0,Wunderground v.1.15,2013-04-09 09:34:00,
2013-04-09 04:35:00,53.4,52.3,29.82,NE,34,8.0,11.0,96,0.00,,,0.31,0,Wunderground v.1.15,2013-04-09 09:35:00,
2013-04-09 04:36:00,53.4,52.3,29.82,NE,55,8.0,12.0,96,0.00,,,0.31,0,Wunderground v.1.15,2013-04-09 09:36:00,
2013-04-09 04:40:00,53.4,52.3,29.84,SW,234,9.0,9.0,96,0.00,,,0.31,0,Wunderground v.1.15,2013-04-09 09:40:00,
2013-04-09 04:43:00,53.4,52.3,29.83,SSW,198,7.0,9.0,96,0.00,,,0.31,0,Wunderground v.1.15,2013-04-09 09:43:00,
2013-04-09 04:44:00,53.5,52.4,29.83,South,191,6.0,9.0,96,0.00,,,0.31,0,Wunderground v.1.15,2013-04-09 09:44:00,
2013-04-09 04:45:00,53.5,52.4,29.83,SSW,192,6.0,9.0,96,0.00,,,0.31,0,Wunderground v.1.15,2013-04-09 09:45:00,
2013-04-09 04:49:00,53.6,52.5,29.82,North,11,4.0,9.0,96,0.00,,,0.31,0,Wunderground v.1.15,2013-04-09 09:49:00,
2013-04-09 04:50:00,53.6,52.5,29.82,North,355,4.0,5.0,96,0.00,,,0.31,0,Wunderground v.1.15,2013-04-09 09:50:00,
2013-04-09 04:53:00,53.7,52.6,29.82,NNE,12,4.0,6.0,96,0.00,,,0.31,0,Wunderground v.1.15,2013-04-09 09:53:00,
2013-04-09 04:54:00,53.7,52.6,29.82,NNE,32,4.0,6.0,96,0.00,,,0.31,0,Wunderground v.1.15,2013-04-09 09:54:00,
2013-04-09 04:56:00,53.9,52.8,29.82,NE,36,5.0,10.0,96,0.00,,,0.31,0,Wunderground v.1.15,2013-04-09 09:56:00,
2013-04-09 04:57:00,53.9,52.8,29.83,NE,48,5.0,10.0,96,0.00,,,0.31,0,Wunderground v.1.15,2013-04-09 09:57:00,
2013-04-09 05:02:00,54.3,53.2,29.82,ENE,62,8.0,15.0,96,0.00,,,0.31,0,Wunderground v.1.15,2013-04-09 10:02:00,
2013-04-09 05:04:00,54.4,53.3,29.82,ENE,57,9.0,15.0,96,0.00,,,0.31,0,Wunderground v.1.15,2013-04-09 10:04:00,
2013-04-09 05:06:00,54.4,53.3,29.82,ENE,74,9.0,15.0,96,0.00,,,0.31,0,Wunderground v.1.15,2013-04-09 10:06:00,
2013-04-09 05:08:00,54.4,53.3,29.82,NE,52,9.0,15.0,96,0.00,,,0.31,0,Wunderground v.1.15,2013-04-09 10:08:00,
2013-04-09 05:09:00,54.4,53.3,29.82,ENE,57,9.0,15.0,96,0.00,,,0.31,0,Wunderground v.1.15,2013-04-09 10:09:00,
2013-04-09 05:13:00,54.5,53.4,29.81,ENE,63,9.0,11.0,96,0.00,,,0.31,0,Wunderground v.1.15,2013-04-09 10:13:00,
2013-04-09 05:14:00,54.5,53.4,29.81,NNE,30,9.0,11.0,96,0.00,,,0.31,0,Wunderground v.1.15,2013-04-09 10:14:00,
2013-04-09 05:16:00,54.5,53.4,29.82,NE,49,9.0,11.0,96,0.00,,,0.31,0,Wunderground v.1.15,2013-04-09 10:16:00,
2013-04-09 05:20:00,54.6,53.5,29.81,NE,55,9.0,10.0,96,0.00,,,0.31,0,Wunderground v.1.15,2013-04-09 10:20:00,
2013-04-09 05:21:00,54.5,53.4,29.81,ENE,59,9.0,10.0,96,0.00,,,0.31,0,Wunderground v.1.15,2013-04-09 10:21:00,
2013-04-09 05:24:00,54.5,53.4,29.81,NE,46,9.0,12.0,96,0.00,,,0.31,0,Wunderground v.1.15,2013-04-09 10:24:00,
2013-04-09 05:25:00,54.5,53.4,29.81,ENE,67,9.0,12.0,96,0.00,,,0.31,0,Wunderground v.1.15,2013-04-09 10:25:00,
2013-04-09 05:28:00,54.5,53.4,29.81,NE,53,10.0,12.0,96,0.00,,,0.31,0,Wunderground v.1.15,2013-04-09 10:28:00,
2013-04-09 05:29:00,54.5,53.4,29.81,ENE,57,10.0,12.0,96,0.00,,,0.31,0,Wunderground v.1.15,2013-04-09 10:29:00,
2013-04-09 05:32:00,54.4,53.3,29.81,ENE,72,10.0,12.0,96,0.00,,,0.31,0,Wunderground v.1.15,2013-04-09 10:32:00,
2013-04-09 05:33:00,54.4,53.3,29.81,NE,53,10.0,13.0,96,0.00,,,0.31,0,Wunderground v.1.15,2013-04-09 10:33:00,
2013-04-09 05:34:00,54.4,53.3,29.81,NE,39,10.0,13.0,96,0.00,,,0.31,0,Wunderground v.1.15,2013-04-09 10:34:00,
2013-04-09 05:38:00,54.4,53.3,29.82,NE,56,10.0,13.0,96,0.00,,,0.31,0,Wunderground v.1.15,2013-04-09 10:38:00,
2013-04-09 05:39:00,54.3,53.2,29.81,ENE,60,11.0,13.0,96,0.00,,,0.31,0,Wunderground v.1.15,2013-04-09 10:39:00,
2013-04-09 05:43:00,54.3,53.2,29.81,ENE,70,12.0,15.0,96,0.00,,,0.31,0,Wunderground v.1.15,2013-04-09 10:43:00,
2013-04-09 05:44:00,54.3,53.2,29.81,East,84,12.0,15.0,96,0.00,,,0.31,0,Wunderground v.1.15,2013-04-09 10:44:00,
2013-04-09 05:45:00,54.2,53.1,29.81,ENE,66,12.0,15.0,96,0.00,,,0.31,0,Wunderground v.1.15,2013-04-09 10:45:00,
2013-04-09 05:46:00,54.2,53.1,29.81,ENE,70,12.0,15.0,96,0.00,,,0.31,0,Wunderground v.1.15,2013-04-09 10:46:00,
2013-04-09 05:50:00,54.2,53.1,29.81,NE,44,12.0,12.0,96,0.00,,,0.31,0,Wunderground v.1.15,2013-04-09 10:50:00,
2013-04-09 05:51:00,54.2,53.1,29.81,ENE,58,11.0,12.0,96,0.00,,,0.31,0,Wunderground v.1.15,2013-04-09 10:51:00,
2013-04-09 05:52:00,54.3,53.2,29.81,ENE,60,11.0,12.0,96,0.00,,,0.31,0,Wunderground v.1.15,2013-04-09 10:52:00,
2013-04-09 05:55:00,54.3,53.2,29.81,NE,54,9.0,12.0,96,0.00,,,0.31,0,Wunderground v.1.15,2013-04-09 10:55:00,
2013-04-09 05:56:00,54.4,53.3,29.81,ENE,61,9.0,12.0,96,0.00,,,0.31,0,Wunderground v.1.15,2013-04-09 10:56:00,
2013-04-09 06:00:00,54.4,53.3,29.80,East,80,9.0,12.0,96,0.00,,,0.31,0,Wunderground v.1.15,2013-04-09 11:00:00,
2013-04-09 06:01:00,54.5,53.4,29.80,East,92,9.0,15.0,96,0.00,,,0.31,0,Wunderground v.1.15,2013-04-09 11:01:00,
2013-04-09 06:04:00,54.5,53.4,29.80,NE,55,10.0,15.0,96,0.00,,,0.31,0,Wunderground v.1.15,2013-04-09 11:04:00,
2013-04-09 06:08:00,54.5,53.4,29.80,ENE,61,11.0,15.0,96,0.00,,,0.31,0,Wunderground v.1.15,2013-04-09 11:08:00,
2013-04-09 06:09:00,54.5,53.4,29.81,ENE,58,11.0,15.0,96,0.00,,,0.31,0,Wunderground v.1.15,2013-04-09 11:09:00,
2013-04-09 06:13:00,54.5,53.4,29.80,ENE,70,10.0,18.0,96,0.00,,,0.31,0,Wunderground v.1.15,2013-04-09 11:13:00,
2013-04-09 06:14:00,54.5,53.4,29.80,ENE,74,10.0,18.0,96,0.00,,,0.31,0,Wunderground v.1.15,2013-04-09 11:14:00,
2013-04-09 06:15:00,54.5,53.4,29.80,ENE,70,10.0,18.0,96,0.00,,,0.31,0,Wunderground v.1.15,2013-04-09 11:15:00,
2013-04-09 06:20:00,54.5,53.4,29.80,East,82,10.0,10.0,96,0.00,,,0.31,0,Wunderground v.1.15,2013-04-09 11:20:00,
2013-04-09 06:22:00,54.5,53.4,29.80,ENE,65,9.0,11.0,96,0.00,,,0.31,0,Wunderground v.1.15,2013-04-09 11:22:00,
2013-04-09 06:25:00,54.6,53.5,29.80,ENE,69,9.0,11.0,96,0.00,,,0.31,0,Wunderground v.1.15,2013-04-09 11:25:00,
2013-04-09 06:27:00,54.6,53.5,29.80,ENE,62,9.0,11.0,96,0.00,,,0.31,0,Wunderground v.1.15,2013-04-09 11:27:00,
2013-04-09 06:28:00,54.6,53.5,29.80,ENE,72,9.0,11.0,96,0.00,,,0.31,0,Wunderground v.1.15,2013-04-09 11:28:00,
2013-04-09 06:29:00,54.6,53.5,29.80,ENE,74,9.0,11.0,96,0.00,,,0.31,0,Wunderground v.1.15,2013-04-09 11:29:00,
2013-04-09 06:32:00,54.6,53.5,29.80,ENE,61,9.0,11.0,96,0.00,,,0.31,0,Wunderground v.1.15,2013-04-09 11:32:00,
2013-04-09 06:33:00,54.6,53.5,29.80,ENE,74,9.0,11.0,96,0.00,,,0.31,0,Wunderground v.1.15,2013-04-09 11:33:00,
2013-04-09 06:35:00,54.7,53.6,29.80,ENE,74,9.0,11.0,96,0.00,,,0.31,0,Wunderground v.1.15,2013-04-09 11:35:00,
2013-04-09 06:38:00,54.7,53.6,29.80,ENE,74,9.0,12.0,96,0.00,,,0.31,0,Wunderground v.1.15,2013-04-09 11:38:00,
2013-04-09 06:39:00,54.8,53.7,29.80,ENE,67,9.0,12.0,96,0.00,,,0.31,0,Wunderground v.1.15,2013-04-09 11:39:00,
2013-04-09 06:43:00,54.8,53.7,29.80,ENE,75,10.0,13.0,96,0.00,,,0.31,0,Wunderground v.1.15,2013-04-09 11:43:00,
2013-04-09 06:44:00,54.8,53.7,29.80,East,79,10.0,13.0,96,0.00,,,0.31,0,Wunderground v.1.15,2013-04-09 11:44:00,
2013-04-09 06:46:00,54.8,53.7,29.80,ENE,69,10.0,13.0,96,0.00,,,0.31,0,Wunderground v.1.15,2013-04-09 11:46:00,
2013-04-09 06:47:00,54.8,53.7,29.80,East,80,10.0,15.0,96,0.00,,,0.31,0,Wunderground v.1.15,2013-04-09 11:47:00,
2013-04-09 06:48:00,54.8,53.7,29.80,NE,38,10.0,15.0,96,0.00,,,0.31,0,Wunderground v.1.15,2013-04-09 11:48:00,
2013-04-09 06:50:00,54.8,53.7,29.80,East,90,10.0,11.0,96,0.00,,,0.31,0,Wunderground v.1.15,2013-04-09 11:50:00,
2013-04-09 06:53:00,54.8,53.7,29.80,ENE,67,11.0,13.0,96,0.00,,,0.31,0,Wunderground v.1.15,2013-04-09 11:53:00,
2013-04-09 06:56:00,54.8,53.7,29.80,East,79,10.0,13.0,96,0.00,,,0.31,0,Wunderground v.1.15,2013-04-09 11:56:00,
2013-04-09 06:57:00,54.8,53.7,29.80,ENE,67,10.0,13.0,96,0.00,,,0.31,0,Wunderground v.1.15,2013-04-09 11:57:00,
2013-04-09 07:01:00,54.8,53.7,29.80,ENE,68,9.0,11.0,96,0.00,,,0.31,0,Wunderground v.1.15,2013-04-09 12:01:00,
2013-04-09 07:04:00,54.8,53.7,29.80,ENE,70,9.0,17.0,96,0.00,,,0.31,0,Wunderground v.1.15,2013-04-09 12:04:00,
2013-04-09 07:05:00,54.8,53.7,29.80,ENE,70,9.0,17.0,96,0.00,,,0.31,0,Wunderground v.1.15,2013-04-09 12:05:00,
2013-04-09 07:06:00,54.8,53.7,29.80,ENE,78,9.0,17.0,96,0.00,,,0.31,0,Wunderground v.1.15,2013-04-09 12:06:00,
2013-04-09 07:11:00,54.8,53.7,29.80,ENE,72,10.0,10.0,96,0.00,,,0.31,0,Wunderground v.1.15,2013-04-09 12:11:00,
2013-04-09 07:13:00,54.8,53.7,29.80,ENE,74,10.0,11.0,96,0.00,,,0.31,5,Wunderground v.1.15,2013-04-09 12:13:00,
2013-04-09 07:14:00,54.8,53.7,29.80,East,80,10.0,11.0,96,0.00,,,0.31,5,Wunderground v.1.15,2013-04-09 12:14:00,
2013-04-09 07:18:00,54.9,53.8,29.80,NE,51,11.0,15.0,96,0.00,,,0.31,7,Wunderground v.1.15,2013-04-09 12:18:00,
2013-04-09 07:19:00,54.9,53.8,29.81,ENE,63,10.0,15.0,96,0.00,,,0.31,7,Wunderground v.1.15,2013-04-09 12:19:00,
2013-04-09 07:24:00,54.9,53.8,29.81,ENE,70,11.0,14.0,96,0.00,,,0.31,7,Wunderground v.1.15,2013-04-09 12:24:00,
2013-04-09 07:26:00,55.0,53.9,29.81,ENE,76,11.0,14.0,96,0.00,,,0.31,7,Wunderground v.1.15,2013-04-09 12:26:00,
2013-04-09 07:27:00,55.0,53.9,29.81,East,81,11.0,14.0,96,0.00,,,0.31,9,Wunderground v.1.15,2013-04-09 12:27:00,
2013-04-09 07:30:00,55.0,53.9,29.81,ENE,70,11.0,12.0,96,0.00,,,0.31,12,Wunderground v.1.15,2013-04-09 12:30:00,
2013-04-09 07:31:00,55.0,53.9,29.81,East,86,11.0,12.0,96,0.00,,,0.31,11,Wunderground v.1.15,2013-04-09 12:31:00,
2013-04-09 07:33:00,55.1,54.0,29.81,ENE,78,11.0,15.0,96,0.00,,,0.31,5,Wunderground v.1.15,2013-04-09 12:33:00,
2013-04-09 07:36:00,55.1,54.0,29.81,ESE,106,11.0,15.0,96,0.00,,,0.31,5,Wunderground v.1.15,2013-04-09 12:36:00,
2013-04-09 07:38:00,55.2,54.1,29.81,ENE,71,11.0,15.0,96,0.00,,,0.31,11,Wunderground v.1.15,2013-04-09 12:38:00,
2013-04-09 07:39:00,55.2,54.1,29.81,East,79,11.0,15.0,96,0.00,,,0.31,12,Wunderground v.1.15,2013-04-09 12:39:00,
2013-04-09 07:40:00,55.2,54.1,29.81,East,79,11.0,12.0,96,0.00,,,0.31,12,Wunderground v.1.15,2013-04-09 12:40:00,
2013-04-09 07:43:00,55.3,54.2,29.81,ENE,77,10.0,12.0,96,0.00,,,0.31,11,Wunderground v.1.15,2013-04-09 12:43:00,
2013-04-09 07:47:00,55.3,54.2,29.81,East,95,9.0,12.0,96,0.00,,,0.31,11,Wunderground v.1.15,2013-04-09 12:47:00,
2013-04-09 07:48:00,55.3,54.2,29.81,East,96,9.0,12.0,96,0.00,,,0.31,12,Wunderground v.1.15,2013-04-09 12:48:00,
2013-04-09 07:52:00,55.4,54.3,29.81,East,80,7.0,11.0,96,0.00,,,0.31,16,Wunderground v.1.15,2013-04-09 12:52:00,
2013-04-09 07:53:00,55.4,54.3,29.81,East,99,7.0,11.0,96,0.00,,,0.31,14,Wunderground v.1.15,2013-04-09 12:53:00,
2013-04-09 07:54:00,55.5,54.4,29.82,ENE,78,7.0,11.0,96,0.00,,,0.31,14,Wunderground v.1.15,2013-04-09 12:54:00,
2013-04-09 07:55:00,55.5,54.4,29.82,East,87,7.0,11.0,96,0.00,,,0.31,12,Wunderground v.1.15,2013-04-09 12:55:00,
2013-04-09 08:00:00,55.6,54.5,29.81,East,90,7.0,8.0,96,0.00,,,0.31,25,Wunderground v.1.15,2013-04-09 13:00:00,
2013-04-09 08:01:00,55.6,54.5,29.81,East,93,6.0,20.0,96,0.00,,,0.31,25,Wunderground v.1.15,2013-04-09 13:01:00,
2013-04-09 08:04:00,55.7,54.6,29.81,East,94,6.0,20.0,96,0.00,,,0.31,35,Wunderground v.1.15,2013-04-09 13:04:00,
2013-04-09 08:06:00,55.7,54.6,29.81,ENE,75,6.0,20.0,96,0.00,,,0.32,37,Wunderground v.1.15,2013-04-09 13:06:00,
2013-04-09 08:07:00,55.8,54.7,29.80,East,92,6.0,20.0,96,0.00,,,0.32,33,Wunderground v.1.15,2013-04-09 13:07:00,
2013-04-09 08:08:00,55.8,54.7,29.81,East,90,6.0,20.0,96,0.00,,,0.32,32,Wunderground v.1.15,2013-04-09 13:08:00,
2013-04-09 08:11:00,55.9,54.8,29.80,East,80,7.0,9.0,96,0.00,,,0.32,81,Wunderground v.1.15,2013-04-09 13:11:00,
2013-04-09 08:13:00,56.0,54.9,29.79,East,94,7.0,9.0,96,0.00,,,0.32,88,Wunderground v.1.15,2013-04-09 13:13:00,
2013-04-09 08:14:00,56.0,54.9,29.79,East,99,7.0,9.0,96,0.00,,,0.32,88,Wunderground v.1.15,2013-04-09 13:14:00,
2013-04-09 08:17:00,56.1,55.0,29.79,East,84,8.0,9.0,96,0.00,,,0.32,84,Wunderground v.1.15,2013-04-09 13:17:00,
2013-04-09 08:19:00,56.2,55.1,29.79,East,92,8.0,9.0,96,0.00,,,0.32,86,Wunderground v.1.15,2013-04-09 13:19:00,
2013-04-09 08:22:00,56.3,55.2,29.79,East,88,9.0,11.0,96,0.04,,,0.33,98,Wunderground v.1.15,2013-04-09 13:22:00,
2013-04-09 08:23:00,56.3,55.2,29.79,East,83,8.0,11.0,96,0.04,,,0.33,88,Wunderground v.1.15,2013-04-09 13:23:00,
2013-04-09 08:26:00,56.4,55.3,29.79,ENE,78,8.0,11.0,96,0.04,,,0.33,102,Wunderground v.1.15,2013-04-09 13:26:00,
2013-04-09 08:28:00,56.4,55.3,29.80,East,80,8.0,11.0,96,0.04,,,0.33,98,Wunderground v.1.15,2013-04-09 13:28:00,
2013-04-09 08:30:00,56.5,55.4,29.80,East,91,8.0,9.0,96,0.04,,,0.33,81,Wunderground v.1.15,2013-04-09 13:30:00,
2013-04-09 08:31:00,56.5,55.4,29.81,East,88,7.0,9.0,96,0.04,,,0.33,56,Wunderground v.1.15,2013-04-09 13:31:00,
2013-04-09 08:35:00,56.6,55.5,29.81,East,84,7.0,9.0,96,0.04,,,0.33,44,Wunderground v.1.15,2013-04-09 13:35:00,
2013-04-09 08:36:00,56.6,55.5,29.81,East,92,6.0,9.0,96,0.04,,,0.33,47,Wunderground v.1.15,2013-04-09 13:36:00,
2013-04-09 08:37:00,56.6,55.5,29.81,East,82,6.0,9.0,96,0.00,,,0.33,47,Wunderground v.1.15,2013-04-09 13:37:00,
2013-04-09 08:42:00,56.6,55.5,29.80,East,80,6.0,8.0,96,0.00,,,0.33,81,Wunderground v.1.15,2013-04-09 13:42:00,
2013-04-09 08:44:00,56.7,55.6,29.80,East,99,6.0,8.0,96,0.00,,,0.33,40,Wunderground v.1.15,2013-04-09 13:44:00,
2013-04-09 08:47:00,56.7,55.6,29.81,East,90,7.0,8.0,96,0.00,,,0.33,25,Wunderground v.1.15,2013-04-09 13:47:00,
2013-04-09 08:48:00,56.6,55.5,29.81,ESE,107,7.0,8.0,96,0.00,,,0.33,23,Wunderground v.1.15,2013-04-09 13:48:00,
2013-04-09 08:51:00,56.6,55.5,29.81,ESE,108,7.0,7.0,96,0.00,,,0.33,14,Wunderground v.1.15,2013-04-09 13:51:00,
2013-04-09 08:53:00,56.6,55.5,29.81,ESE,104,6.0,7.0,96,0.00,,,0.33,21,Wunderground v.1.15,2013-04-09 13:53:00,
2013-04-09 08:55:00,56.6,55.5,29.81,SE,142,6.0,7.0,96,0.00,,,0.33,14,Wunderground v.1.15,2013-04-09 13:55:00,
2013-04-09 08:56:00,56.7,55.6,29.81,East,79,5.0,7.0,96,0.00,,,0.33,14,Wunderground v.1.15,2013-04-09 13:56:00,
2013-04-09 08:58:00,56.6,55.5,29.81,East,82,5.0,7.0,96,0.00,,,0.33,14,Wunderground v.1.15,2013-04-09 13:58:00,
2013-04-09 09:01:00,56.6,55.5,29.81,East,86,5.0,19.0,96,0.00,,,0.33,18,Wunderground v.1.15,2013-04-09 14:01:00,
2013-04-09 09:02:00,56.6,55.5,29.81,East,94,5.0,19.0,96,0.00,,,0.33,19,Wunderground v.1.15,2013-04-09 14:02:00,
2013-04-09 09:03:00,56.6,55.5,29.81,ENE,78,5.0,19.0,96,0.00,,,0.33,18,Wunderground v.1.15,2013-04-09 14:03:00,
2013-04-09 09:07:00,56.7,55.6,29.81,East,92,5.0,19.0,96,0.00,,,0.33,11,Wunderground v.1.15,2013-04-09 14:07:00,
2013-04-09 09:08:00,56.7,55.6,29.82,ENE,74,5.0,19.0,96,0.00,,,0.33,7,Wunderground v.1.15,2013-04-09 14:08:00,
2013-04-09 09:11:00,56.7,55.6,29.82,ENE,74,4.0,5.0,96,0.00,,,0.33,5,Wunderground v.1.15,2013-04-09 14:11:00,
2013-04-09 09:14:00,56.7,55.6,29.82,East,98,4.0,5.0,96,0.00,,,0.33,0,Wunderground v.1.15,2013-04-09 14:14:00,
2013-04-09 09:16:00,56.7,55.6,29.82,East,79,4.0,5.0,96,0.00,,,0.33,0,Wunderground v.1.15,2013-04-09 14:16:00,
2013-04-09 09:19:00,56.7,55.6,29.83,East,90,4.0,5.0,96,0.00,,,0.33,0,Wunderground v.1.15,2013-04-09 14:19:00,
2013-04-09 09:22:00,56.7,55.6,29.83,East,90,4.0,4.0,96,0.00,,,0.33,0,Wunderground v.1.15,2013-04-09 14:22:00,
2013-04-09 09:23:00,56.7,55.6,29.83,East,90,3.0,4.0,96,0.00,,,0.33,0,Wunderground v.1.15,2013-04-09 14:23:00,
2013-04-09 09:26:00,56.7,55.6,29.83,East,90,3.0,4.0,96,0.57,,,0.35,7,Wunderground v.1.15,2013-04-09 14:26:00,
2013-04-09 09:27:00,56.7,55.6,29.83,ENE,71,3.0,4.0,96,0.41,,,0.35,7,Wunderground v.1.15,2013-04-09 14:27:00,
2013-04-09 09:28:00,56.7,55.6,29.83,ENE,71,3.0,5.0,96,1.00,,,0.36,9,Wunderground v.1.15,2013-04-09 14:28:00,
2013-04-09 09:31:00,56.7,55.6,29.82,NE,44,3.0,4.0,96,0.55,,,0.39,11,Wunderground v.1.15,2013-04-09 14:31:00,
2013-04-09 09:34:00,56.6,55.5,29.83,NE,44,3.0,4.0,96,0.22,,,0.40,16,Wunderground v.1.15,2013-04-09 14:34:00,
2013-04-09 09:38:00,56.6,55.5,29.82,ENE,78,4.0,5.0,96,0.11,,,0.40,40,Wunderground v.1.15,2013-04-09 14:38:00,
2013-04-09 09:40:00,56.7,55.6,29.82,ENE,78,4.0,4.0,96,0.08,,,0.40,40,Wunderground v.1.15,2013-04-09 14:40:00,
2013-04-09 09:43:00,56.7,55.6,29.82,East,95,4.0,5.0,96,0.06,,,0.40,65,Wunderground v.1.15,2013-04-09 14:43:00,
2013-04-09 09:44:00,56.7,55.6,29.82,East,95,4.0,5.0,96,0.05,,,0.40,65,Wunderground v.1.15,2013-04-09 14:44:00,
2013-04-09 09:45:00,56.7,55.6,29.82,East,93,4.0,5.0,96,0.05,,,0.40,56,Wunderground v.1.15,2013-04-09 14:45:00,
2013-04-09 09:50:00,56.7,55.9,29.82,East,92,5.0,5.0,97,0.00,,,0.40,93,Wunderground v.1.15,2013-04-09 14:50:00,
2013-04-09 09:51:00,56.8,56.0,29.82,East,90,5.0,6.0,97,0.00,,,0.40,104,Wunderground v.1.15,2013-04-09 14:51:00,
2013-04-09 09:52:00,56.8,56.0,29.81,East,92,5.0,7.0,97,0.00,,,0.40,104,Wunderground v.1.15,2013-04-09 14:52:00,
2013-04-09 09:54:00,56.8,56.0,29.81,East,90,5.0,7.0,97,0.00,,,0.40,105,Wunderground v.1.15,2013-04-09 14:54:00,
2013-04-09 09:56:00,56.9,56.1,29.81,East,93,5.0,7.0,97,0.00,,,0.40,132,Wunderground v.1.15,2013-04-09 14:56:00,
2013-04-09 09:59:00,57.0,56.2,29.81,East,92,5.0,7.0,97,0.00,,,0.41,227,Wunderground v.1.15,2013-04-09 14:59:00,
2013-04-09 10:02:00,57.3,56.5,29.81,East,84,5.0,16.0,97,0.00,,,0.41,246,Wunderground v.1.15,2013-04-09 15:02:00,
2013-04-09 10:03:00,57.3,56.5,29.82,East,98,5.0,16.0,97,0.00,,,0.41,265,Wunderground v.1.15,2013-04-09 15:03:00,
2013-04-09 10:05:00,57.3,56.5,29.81,East,97,5.0,16.0,97,0.00,,,0.41,274,Wunderground v.1.15,2013-04-09 15:05:00,
2013-04-09 10:08:00,57.5,56.7,29.81,ESE,107,5.0,16.0,97,0.00,,,0.41,241,Wunderground v.1.15,2013-04-09 15:08:00,
2013-04-09 10:10:00,57.7,56.9,29.81,ESE,105,5.0,6.0,97,0.00,,,0.41,239,Wunderground v.1.15,2013-04-09 15:10:00,
2013-04-09 10:12:00,57.8,57.0,29.81,East,90,5.0,6.0,97,0.00,,,0.41,225,Wunderground v.1.15,2013-04-09 15:12:00,
2013-04-09 10:13:00,57.8,57.0,29.81,ESE,117,5.0,6.0,97,0.00,,,0.41,214,Wunderground v.1.15,2013-04-09 15:13:00,
2013-04-09 10:17:00,58.0,57.2,29.81,ESE,117,3.0,6.0,97,0.00,,,0.41,174,Wunderground v.1.15,2013-04-09 15:17:00,
2013-04-09 10:18:00,58.1,57.3,29.82,ENE,63,3.0,6.0,97,0.00,,,0.41,151,Wunderground v.1.15,2013-04-09 15:18:00,
2013-04-09 10:20:00,58.0,57.2,29.82,ENE,74,4.0,4.0,97,0.00,,,0.41,132,Wunderground v.1.15,2013-04-09 15:20:00,
2013-04-09 10:21:00,58.0,57.2,29.82,East,96,4.0,4.0,97,0.00,,,0.41,120,Wunderground v.1.15,2013-04-09 15:21:00,
2013-04-09 10:25:00,58.0,57.2,29.82,East,96,4.0,4.0,97,0.00,,,0.41,107,Wunderground v.1.15,2013-04-09 15:25:00,
2013-04-09 10:26:00,58.1,57.3,29.82,East,96,4.0,4.0,97,0.00,,,0.41,102,Wunderground v.1.15,2013-04-09 15:26:00,
2013-04-09 10:27:00,58.1,57.3,29.82,ENE,71,4.0,5.0,97,0.00,,,0.41,98,Wunderground v.1.15,2013-04-09 15:27:00,
2013-04-09 10:30:00,58.1,57.3,29.82,NE,42,4.0,4.0,97,0.00,,,0.41,83,Wunderground v.1.15,2013-04-09 15:30:00,
2013-04-09 10:31:00,58.1,57.3,29.82,NE,42,4.0,4.0,97,0.00,,,0.41,79,Wunderground v.1.15,2013-04-09 15:31:00,
2013-04-09 10:33:00,58.1,57.3,29.82,NE,42,4.0,5.0,97,0.00,,,0.41,70,Wunderground v.1.15,2013-04-09 15:33:00,
2013-04-09 10:34:00,58.1,57.3,29.83,NE,42,4.0,5.0,97,0.00,,,0.41,69,Wunderground v.1.15,2013-04-09 15:34:00,
2013-04-09 10:38:00,58.1,57.3,29.83,NNE,27,4.0,5.0,97,0.00,,,0.41,69,Wunderground v.1.15,2013-04-09 15:38:00,
2013-04-09 10:41:00,58.2,57.4,29.83,NE,40,4.0,4.0,97,0.00,,,0.41,114,Wunderground v.1.15,2013-04-09 15:41:00,
2013-04-09 10:42:00,58.2,57.4,29.83,NE,40,4.0,4.0,97,0.00,,,0.41,125,Wunderground v.1.15,2013-04-09 15:42:00,
2013-04-09 10:45:00,58.4,57.6,29.83,NNE,15,4.0,5.0,97,0.00,,,0.41,107,Wunderground v.1.15,2013-04-09 15:45:00,
2013-04-09 10:47:00,58.4,57.6,29.84,North,9,4.0,5.0,97,0.00,,,0.41,49,Wunderground v.1.15,2013-04-09 15:47:00,
2013-04-09 10:52:00,58.1,57.3,29.84,NNW,342,6.0,9.0,97,0.00,,,0.41,19,Wunderground v.1.15,2013-04-09 15:52:00,
2013-04-09 10:53:00,57.9,56.8,29.84,North,355,6.0,9.0,96,0.00,,,0.41,21,Wunderground v.1.15,2013-04-09 15:53:00,
2013-04-09 10:55:00,57.2,56.1,29.85,NNW,348,7.0,12.0,96,0.00,,,0.41,30,Wunderground v.1.15,2013-04-09 15:55:00,
2013-04-09 10:56:00,56.8,55.4,29.85,North,350,7.0,12.0,95,0.00,,,0.41,35,Wunderground v.1.15,2013-04-09 15:56:00,
2013-04-09 11:00:00,56.0,54.9,29.84,NE,38,7.0,7.0,96,0.00,,,0.41,76,Wunderground v.1.15,2013-04-09 16:00:00,
2013-04-09 11:02:00,55.9,54.8,29.84,NE,35,7.0,9.0,96,0.00,,,0.41,63,Wunderground v.1.15,2013-04-09 16:02:00,
2013-04-09 11:05:00,55.8,54.7,29.85,NNE,16,5.0,9.0,96,0.00,,,0.41,30,Wunderground v.1.15,2013-04-09 16:05:00,
2013-04-09 11:06:00,55.8,54.7,29.85,NNE,19,5.0,9.0,96,0.00,,,0.41,30,Wunderground v.1.15,2013-04-09 16:06:00,
2013-04-09 11:08:00,55.7,54.6,29.85,NNW,348,6.0,10.0,96,0.00,,,0.41,37,Wunderground v.1.15,2013-04-09 16:08:00,
2013-04-09 11:11:00,55.5,54.4,29.84,NNE,16,6.0,7.0,96,0.00,,,0.41,62,Wunderground v.1.15,2013-04-09 16:11:00,
2013-04-09 11:12:00,55.4,54.3,29.84,NNE,31,6.0,7.0,96,0.00,,,0.41,81,Wunderground v.1.15,2013-04-09 16:12:00,
2013-04-09 11:15:00,55.3,54.2,29.84,ENE,61,6.0,7.0,96,0.00,,,0.41,130,Wunderground v.1.15,2013-04-09 16:15:00,
2013-04-09 11:17:00,55.3,54.2,29.84,NE,56,6.0,7.0,96,0.00,,,0.41,118,Wunderground v.1.15,2013-04-09 16:17:00,
2013-04-09 11:19:00,55.5,54.7,29.84,NNE,19,6.0,7.0,97,0.00,,,0.41,116,Wunderground v.1.15,2013-04-09 16:19:00,
2013-04-09 11:20:00,55.5,54.7,29.84,NNE,28,5.0,5.0,97,0.00,,,0.41,121,Wunderground v.1.15,2013-04-09 16:20:00,
2013-04-09 11:21:00,55.6,54.8,29.84,NE,48,5.0,6.0,97,0.00,,,0.41,156,Wunderground v.1.15,2013-04-09 16:21:00,
2013-04-09 11:25:00,55.7,54.9,29.84,NE,35,5.0,7.0,97,0.00,,,0.41,258,Wunderground v.1.15,2013-04-09 16:25:00,
2013-04-09 11:28:00,55.8,55.0,29.84,ENE,61,5.0,7.0,97,0.00,,,0.41,362,Wunderground v.1.15,2013-04-09 16:28:00,
2013-04-09 11:29:00,55.9,55.1,29.84,NE,43,5.0,11.0,97,0.00,,,0.41,387,Wunderground v.1.15,2013-04-09 16:29:00,
2013-04-09 11:32:00,55.8,55.0,29.84,NE,53,6.0,8.0,97,0.00,,,0.41,408,Wunderground v.1.15,2013-04-09 16:32:00,
2013-04-09 11:35:00,56.2,55.4,29.84,NNE,25,6.0,8.0,97,0.00,,,0.41,394,Wunderground v.1.15,2013-04-09 16:35:00,
2013-04-09 11:38:00,56.4,55.6,29.84,NE,51,6.0,8.0,97,0.00,,,0.41,334,Wunderground v.1.15,2013-04-09 16:38:00,
2013-04-09 11:39:00,56.3,55.5,29.84,ENE,64,6.0,8.0,97,0.00,,,0.41,295,Wunderground v.1.15,2013-04-09 16:39:00,
2013-04-09 11:40:00,56.2,55.4,29.84,NNE,15,6.0,7.0,97,0.00,,,0.41,274,Wunderground v.1.15,2013-04-09 16:40:00,
2013-04-09 11:41:00,56.2,55.4,29.84,NNE,28,5.0,7.0,97,0.00,,,0.41,265,Wunderground v.1.15,2013-04-09 16:41:00,
2013-04-09 11:45:00,56.0,54.9,29.84,NNE,16,5.0,7.0,96,0.00,,,0.41,218,Wunderground v.1.15,2013-04-09 16:45:00,
2013-04-09 11:46:00,55.9,54.8,29.84,NE,54,5.0,7.0,96,0.00,,,0.41,206,Wunderground v.1.15,2013-04-09 16:46:00,
2013-04-09 11:47:00,55.8,54.7,29.84,NE,35,5.0,7.0,96,0.00,,,0.41,197,Wunderground v.1.15,2013-04-09 16:47:00,
2013-04-09 11:48:00,55.8,54.7,29.84,North,5,5.0,7.0,96,0.00,,,0.41,192,Wunderground v.1.15,2013-04-09 16:48:00,
2013-04-09 11:51:00,55.8,55.0,29.84,NE,39,5.0,6.0,97,0.00,,,0.41,272,Wunderground v.1.15,2013-04-09 16:51:00,
2013-04-09 11:53:00,55.8,54.7,29.84,NE,34,5.0,6.0,96,0.00,,,0.41,251,Wunderground v.1.15,2013-04-09 16:53:00,
2013-04-09 11:54:00,55.8,55.0,29.84,NNE,26,5.0,6.0,97,0.00,,,0.41,232,Wunderground v.1.15,2013-04-09 16:54:00,
2013-04-09 11:55:00,55.8,54.7,29.84,NE,44,5.0,8.0,96,0.00,,,0.41,211,Wunderground v.1.15,2013-04-09 16:55:00,
2013-04-09 11:58:00,55.9,55.1,29.84,NE,55,5.0,8.0,97,0.00,,,0.41,248,Wunderground v.1.15,2013-04-09 16:58:00,
2013-04-09 12:00:00,55.8,54.7,29.83,ENE,76,5.0,5.0,96,0.00,,,0.41,276,Wunderground v.1.15,2013-04-09 17:00:00,
2013-04-09 12:03:00,55.8,54.7,29.83,ENE,58,5.0,13.0,96,0.00,,,0.41,318,Wunderground v.1.15,2013-04-09 17:03:00,
2013-04-09 12:04:00,55.8,55.0,29.83,NE,42,5.0,13.0,97,0.00,,,0.41,352,Wunderground v.1.15,2013-04-09 17:04:00,
2013-04-09 12:06:00,55.8,55.0,29.83,ENE,67,6.0,13.0,97,0.00,,,0.41,408,Wunderground v.1.15,2013-04-09 17:06:00,
2013-04-09 12:09:00,56.1,55.3,29.83,NE,49,6.0,13.0,97,0.00,,,0.41,497,Wunderground v.1.15,2013-04-09 17:09:00,
2013-04-09 12:11:00,56.3,55.5,29.83,NE,53,6.0,7.0,97,0.00,,,0.41,594,Wunderground v.1.15,2013-04-09 17:11:00,
2013-04-09 12:12:00,56.4,55.6,29.83,NE,56,6.0,7.0,97,0.00,,,0.41,689,Wunderground v.1.15,2013-04-09 17:12:00,
2013-04-09 12:13:00,56.4,55.6,29.82,ENE,61,6.0,7.0,97,0.00,,,0.41,689,Wunderground v.1.15,2013-04-09 17:13:00,
2013-04-09 12:15:00,56.4,55.3,29.83,NE,34,6.0,7.0,96,0.00,,,0.41,353,Wunderground v.1.15,2013-04-09 17:15:00,
2013-04-09 12:19:00,56.7,55.9,29.82,NE,53,6.0,7.0,97,0.00,,,0.41,313,Wunderground v.1.15,2013-04-09 17:19:00,
2013-04-09 12:21:00,56.8,56.0,29.83,NE,56,6.0,6.0,97,0.00,,,0.41,367,Wunderground v.1.15,2013-04-09 17:21:00,
2013-04-09 12:22:00,56.8,56.0,29.83,NE,56,5.0,6.0,97,0.00,,,0.41,397,Wunderground v.1.15,2013-04-09 17:22:00,
2013-04-09 12:24:00,57.1,56.3,29.83,NE,51,5.0,7.0,97,0.00,,,0.41,397,Wunderground v.1.15,2013-04-09 17:24:00,
2013-04-09 12:26:00,57.3,56.5,29.83,ENE,59,5.0,7.0,97,0.00,,,0.41,301,Wunderground v.1.15,2013-04-09 17:26:00,
2013-04-09 12:30:00,57.6,56.8,29.83,NNE,14,5.0,6.0,97,0.00,,,0.41,213,Wunderground v.1.15,2013-04-09 17:30:00,
2013-04-09 12:31:00,57.8,57.0,29.83,NNE,28,5.0,6.0,97,0.00,,,0.41,200,Wunderground v.1.15,2013-04-09 17:31:00,
2013-04-09 12:32:00,57.9,57.1,29.83,NNE,27,5.0,6.0,97,0.00,,,0.41,192,Wunderground v.1.15,2013-04-09 17:32:00,
2013-04-09 12:36:00,58.2,57.4,29.83,NNE,23,6.0,7.0,97,0.00,,,0.41,135,Wunderground v.1.15,2013-04-09 17:36:00,
2013-04-09 12:38:00,58.1,57.0,29.83,North,5,6.0,8.0,96,0.00,,,0.41,151,Wunderground v.1.15,2013-04-09 17:38:00,
2013-04-09 12:40:00,58.1,57.0,29.84,North,355,6.0,7.0,96,0.00,,,0.41,114,Wunderground v.1.15,2013-04-09 17:40:00,
2013-04-09 12:41:00,58.0,56.9,29.84,North,355,6.0,8.0,96,0.00,,,0.41,100,Wunderground v.1.15,2013-04-09 17:41:00,
2013-04-09 12:43:00,57.8,56.7,29.84,North,360,7.0,8.0,96,0.00,,,0.41,60,Wunderground v.1.15,2013-04-09 17:43:00,
2013-04-09 12:45:00,57.5,56.4,29.85,North,355,8.0,12.0,96,0.00,,,0.41,33,Wunderground v.1.15,2013-04-09 17:45:00,
2013-04-09 12:47:00,57.1,55.7,29.85,North,360,9.0,15.0,95,0.00,,,0.41,44,Wunderground v.1.15,2013-04-09 17:47:00,
2013-04-09 12:50:00,56.4,55.0,29.84,North,10,10.0,12.0,95,0.00,,,0.41,76,Wunderground v.1.15,2013-04-09 17:50:00,
2013-04-09 12:51:00,56.1,54.7,29.84,North,351,11.0,12.0,95,0.00,,,0.41,67,Wunderground v.1.15,2013-04-09 17:51:00,
2013-04-09 12:52:00,56.0,54.6,29.84,NNW,348,11.0,13.0,95,0.00,,,0.41,54,Wunderground v.1.15,2013-04-09 17:52:00,
2013-04-09 12:56:00,55.2,53.8,29.85,NNE,16,11.0,13.0,95,0.00,,,0.41,70,Wunderground v.1.15,2013-04-09 17:56:00,
2013-04-09 12:57:00,55.0,53.6,29.85,North,350,11.0,13.0,95,0.00,,,0.41,70,Wunderground v.1.15,2013-04-09 17:57:00,
2013-04-09 12:59:00,54.6,53.2,29.85,North,11,11.0,13.0,95,0.00,,,0.41,56,Wunderground v.1.15,2013-04-09 17:59:00,
2013-04-09 13:03:00,53.4,51.7,29.86,North,5,11.0,17.0,94,0.00,,,0.41,86,Wunderground v.1.15,2013-04-09 18:03:00,
2013-04-09 13:05:00,52.4,50.4,29.86,North,360,11.0,17.0,93,0.00,,,0.41,72,Wunderground v.1.15,2013-04-09 18:05:00,
2013-04-09 13:08:00,51.7,49.7,29.86,North,355,11.0,17.0,93,0.00,,,0.41,88,Wunderground v.1.15,2013-04-09 18:08:00,
2013-04-09 13:13:00,50.7,49.0,29.86,North,5,12.0,13.0,94,0.00,,,0.41,90,Wunderground v.1.15,2013-04-09 18:13:00,
2013-04-09 13:14:00,50.6,48.9,29.86,North,11,12.0,13.0,94,0.00,,,0.41,81,Wunderground v.1.15,2013-04-09 18:14:00,
2013-04-09 13:15:00,50.5,48.8,29.86,NNE,22,12.0,13.0,94,0.00,,,0.41,76,Wunderground v.1.15,2013-04-09 18:15:00,
2013-04-09 13:17:00,50.2,48.5,29.86,North,5,12.0,13.0,94,0.00,,,0.41,81,Wunderground v.1.15,2013-04-09 18:17:00,
2013-04-09 13:20:00,49.9,48.2,29.86,North,5,11.0,11.0,94,0.00,,,0.41,72,Wunderground v.1.15,2013-04-09 18:20:00,
2013-04-09 13:22:00,49.7,48.0,29.86,NNE,17,11.0,12.0,94,0.00,,,0.41,79,Wunderground v.1.15,2013-04-09 18:22:00,
2013-04-09 13:24:00,49.6,47.9,29.86,North,5,11.0,12.0,94,0.00,,,0.41,84,Wunderground v.1.15,2013-04-09 18:24:00,
2013-04-09 13:26:00,49.4,48.0,29.86,NNE,17,11.0,12.0,95,0.00,,,0.41,81,Wunderground v.1.15,2013-04-09 18:26:00,
2013-04-09 13:28:00,49.4,48.0,29.86,North,11,11.0,13.0,95,0.00,,,0.41,79,Wunderground v.1.15,2013-04-09 18:28:00,
2013-04-09 13:31:00,49.2,47.8,29.87,North,360,10.0,12.0,95,0.00,,,0.41,63,Wunderground v.1.15,2013-04-09 18:31:00,
2013-04-09 13:32:00,49.2,47.8,29.87,North,5,10.0,12.0,95,0.00,,,0.41,67,Wunderground v.1.15,2013-04-09 18:32:00,
2013-04-09 13:34:00,49.1,47.7,29.87,NNE,14,10.0,12.0,95,0.00,,,0.41,79,Wunderground v.1.15,2013-04-09 18:34:00,
2013-04-09 13:36:00,49.1,47.7,29.87,NNE,15,10.0,12.0,95,0.00,,,0.41,81,Wunderground v.1.15,2013-04-09 18:36:00,
2013-04-09 13:40:00,48.9,47.5,29.87,NNE,20,10.0,10.0,95,0.00,,,0.41,84,Wunderground v.1.15,2013-04-09 18:40:00,
2013-04-09 13:42:00,48.8,47.4,29.87,NE,38,11.0,14.0,95,0.00,,,0.41,84,Wunderground v.1.15,2013-04-09 18:42:00,
2013-04-09 13:44:00,48.7,47.3,29.88,NNE,23,11.0,14.0,95,0.00,,,0.41,72,Wunderground v.1.15,2013-04-09 18:44:00,
2013-04-09 13:46:00,48.5,47.1,29.88,NNE,14,11.0,14.0,95,0.00,,,0.41,70,Wunderground v.1.15,2013-04-09 18:46:00,
2013-04-09 13:47:00,48.4,47.0,29.88,NNE,28,11.0,14.0,95,0.00,,,0.41,72,Wunderground v.1.15,2013-04-09 18:47:00,
2013-04-09 13:48:00,48.4,47.0,29.88,North,355,11.0,17.0,95,0.00,,,0.41,72,Wunderground v.1.15,2013-04-09 18:48:00,
2013-04-09 13:50:00,48.3,46.9,29.88,North,360,11.0,12.0,95,0.00,,,0.41,77,Wunderground v.1.15,2013-04-09 18:50:00,
2013-04-09 13:51:00,48.2,46.8,29.89,NNW,342,11.0,12.0,95,0.00,,,0.41,77,Wunderground v.1.15,2013-04-09 18:51:00,
2013-04-09 13:52:00,48.2,46.8,29.89,North,5,11.0,12.0,95,0.00,,,0.41,77,Wunderground v.1.15,2013-04-09 18:52:00,
2013-04-09 13:56:00,47.9,46.5,29.88,NNE,25,11.0,16.0,95,0.00,,,0.41,105,Wunderground v.1.15,2013-04-09 18:56:00,
2013-04-09 13:57:00,47.8,46.4,29.88,NNE,19,12.0,16.0,95,0.00,,,0.41,105,Wunderground v.1.15,2013-04-09 18:57:00,
2013-04-09 13:58:00,47.8,46.4,29.89,NNE,13,12.0,16.0,95,0.00,,,0.41,105,Wunderground v.1.15,2013-04-09 18:58:00,
2013-04-09 14:04:00,47.9,46.5,29.89,NE,42,11.0,15.0,95,0.00,,,0.41,100,Wunderground v.1.15,2013-04-09 19:04:00,
2013-04-09 14:05:00,47.8,46.4,29.89,NNE,32,11.0,15.0,95,0.00,,,0.41,116,Wunderground v.1.15,2013-04-09 19:05:00,
2013-04-09 14:06:00,47.8,46.4,29.89,NE,50,11.0,15.0,95,0.00,,,0.41,125,Wunderground v.1.15,2013-04-09 19:06:00,
2013-04-09 14:08:00,47.8,46.4,29.89,NNE,14,10.0,15.0,95,0.00,,,0.41,123,Wunderground v.1.15,2013-04-09 19:08:00,
2013-04-09 14:11:00,47.6,46.2,29.89,NNE,33,10.0,11.0,95,0.00,,,0.41,102,Wunderground v.1.15,2013-04-09 19:11:00,
2013-04-09 14:14:00,47.5,46.1,29.89,NE,38,11.0,13.0,95,0.00,,,0.41,74,Wunderground v.1.15,2013-04-09 19:14:00,
2013-04-09 14:15:00,47.5,46.1,29.89,North,5,11.0,13.0,95,0.00,,,0.41,70,Wunderground v.1.15,2013-04-09 19:15:00,
2013-04-09 14:16:00,47.5,46.1,29.89,NE,41,10.0,13.0,95,0.00,,,0.41,72,Wunderground v.1.15,2013-04-09 19:16:00,
2013-04-09 14:20:00,47.3,45.9,29.89,NNE,21,10.0,10.0,95,0.00,,,0.41,79,Wunderground v.1.15,2013-04-09 19:20:00,
2013-04-09 14:22:00,47.2,45.8,29.89,NE,34,10.0,10.0,95,0.00,,,0.41,72,Wunderground v.1.15,2013-04-09 19:22:00,
2013-04-09 14:24:00,47.1,45.7,29.89,NE,34,10.0,10.0,95,0.00,,,0.41,79,Wunderground v.1.15,2013-04-09 19:24:00,
2013-04-09 14:27:00,47.1,45.7,29.89,NNE,30,10.0,18.0,95,0.00,,,0.41,83,Wunderground v.1.15,2013-04-09 19:27:00,
2013-04-09 14:28:00,47.0,45.6,29.89,North,5,11.0,18.0,95,0.00,,,0.41,79,Wunderground v.1.15,2013-04-09 19:28:00,
2013-04-09 14:29:00,46.9,45.5,29.89,NNE,24,11.0,18.0,95,0.00,,,0.41,79,Wunderground v.1.15,2013-04-09 19:29:00,
2013-04-09 14:31:00,46.9,45.5,29.89,NNE,31,11.0,14.0,95,0.00,,,0.41,67,Wunderground v.1.15,2013-04-09 19:31:00,
2013-04-09 14:34:00,46.8,45.4,29.89,NE,52,11.0,14.0,95,0.00,,,0.41,69,Wunderground v.1.15,2013-04-09 19:34:00,
2013-04-09 14:35:00,46.8,45.4,29.89,NE,36,11.0,14.0,95,0.00,,,0.41,77,Wunderground v.1.15,2013-04-09 19:35:00,
2013-04-09 14:37:00,46.8,45.4,29.89,NE,55,11.0,14.0,95,0.00,,,0.41,97,Wunderground v.1.15,2013-04-09 19:37:00,
2013-04-09 14:39:00,46.8,45.4,29.89,NNE,25,10.0,14.0,95,0.00,,,0.41,97,Wunderground v.1.15,2013-04-09 19:39:00,
2013-04-09 14:43:00,46.7,45.3,29.89,NNE,28,10.0,12.0,95,0.00,,,0.41,104,Wunderground v.1.15,2013-04-09 19:43:00,
2013-04-09 14:44:00,46.7,45.3,29.89,North,360,10.0,12.0,95,0.00,,,0.41,100,Wunderground v.1.15,2013-04-09 19:44:00,
2013-04-09 14:46:00,46.6,45.2,29.89,NE,34,11.0,17.0,95,0.00,,,0.41,79,Wunderground v.1.15,2013-04-09 19:46:00,
2013-04-09 14:48:00,46.5,45.1,29.89,NNE,31,11.0,17.0,95,0.00,,,0.41,70,Wunderground v.1.15,2013-04-09 19:48:00,
2013-04-09 14:52:00,46.4,45.0,29.89,NNE,23,12.0,14.0,95,0.00,,,0.41,76,Wunderground v.1.15,2013-04-09 19:52:00,
2013-04-09 14:53:00,46.4,45.0,29.89,NE,43,12.0,14.0,95,0.00,,,0.41,77,Wunderground v.1.15,2013-04-09 19:53:00,
2013-04-09 14:54:00,46.3,44.9,29.89,NE,53,12.0,14.0,95,0.00,,,0.41,76,Wunderground v.1.15,2013-04-09 19:54:00,
2013-04-09 14:56:00,46.2,44.8,29.89,ENE,69,12.0,14.0,95,0.00,,,0.41,79,Wunderground v.1.15,2013-04-09 19:56:00,
2013-04-09 14:58:00,46.1,44.7,29.90,North,11,12.0,14.0,95,0.00,,,0.41,79,Wunderground v.1.15,2013-04-09 19:58:00,
2013-04-09 15:01:00,46.0,44.9,29.89,NE,37,12.0,20.0,96,0.00,,,0.41,102,Wunderground v.1.15,2013-04-09 20:01:00,
2013-04-09 15:02:00,46.1,45.0,29.89,NE,51,12.0,20.0,96,0.00,,,0.41,109,Wunderground v.1.15,2013-04-09 20:02:00,
2013-04-09 15:06:00,46.2,45.1,29.89,NNE,33,11.0,20.0,96,0.00,,,0.41,91,Wunderground v.1.15,2013-04-09 20:06:00,
2013-04-09 15:07:00,46.2,45.1,29.90,NE,54,11.0,20.0,96,0.00,,,0.41,86,Wunderground v.1.15,2013-04-09 20:07:00,
2013-04-09 15:08:00,46.2,45.1,29.90,ENE,57,11.0,20.0,96,0.00,,,0.41,79,Wunderground v.1.15,2013-04-09 20:08:00,
2013-04-09 15:11:00,46.1,45.0,29.90,NNE,23,10.0,10.0,96,0.00,,,0.41,72,Wunderground v.1.15,2013-04-09 20:11:00,
2013-04-09 15:12:00,46.1,45.0,29.90,NE,46,10.0,10.0,96,0.00,,,0.41,72,Wunderground v.1.15,2013-04-09 20:12:00,
2013-04-09 15:14:00,46.0,44.9,29.90,ENE,63,10.0,17.0,96,0.00,,,0.41,79,Wunderground v.1.15,2013-04-09 20:14:00,
2013-04-09 15:15:00,46.0,44.6,29.90,NE,41,10.0,17.0,95,0.00,,,0.41,79,Wunderground v.1.15,2013-04-09 20:15:00,
2013-04-09 15:17:00,45.8,44.4,29.90,ENE,59,10.0,17.0,95,0.00,,,0.41,84,Wunderground v.1.15,2013-04-09 20:17:00,
2013-04-09 15:20:00,45.7,44.4,29.90,NE,53,11.0,11.0,95,0.00,,,0.41,72,Wunderground v.1.15,2013-04-09 20:20:00,
2013-04-09 15:21:00,45.7,44.4,29.90,North,10,11.0,11.0,95,0.00,,,0.41,72,Wunderground v.1.15,2013-04-09 20:21:00,
2013-04-09 15:23:00,45.8,44.7,29.90,NNE,28,11.0,11.0,96,0.00,,,0.41,76,Wunderground v.1.15,2013-04-09 20:23:00,
2013-04-09 15:25:00,45.8,44.7,29.90,NE,42,10.0,13.0,96,0.00,,,0.41,77,Wunderground v.1.15,2013-04-09 20:25:00,
2013-04-09 15:26:00,45.8,44.7,29.90,ENE,65,10.0,13.0,96,0.00,,,0.41,76,Wunderground v.1.15,2013-04-09 20:26:00,
2013-04-09 15:27:00,45.8,44.7,29.90,ENE,62,10.0,13.0,96,0.00,,,0.41,74,Wunderground v.1.15,2013-04-09 20:27:00,
2013-04-09 15:29:00,45.8,44.7,29.90,NNE,25,10.0,13.0,96,0.00,,,0.41,76,Wunderground v.1.15,2013-04-09 20:29:00,
2013-04-09 15:32:00,45.8,44.7,29.90,NE,43,9.0,12.0,96,0.00,,,0.41,81,Wunderground v.1.15,2013-04-09 20:32:00,
2013-04-09 15:33:00,45.7,44.6,29.90,NNE,17,10.0,12.0,96,0.00,,,0.41,79,Wunderground v.1.15,2013-04-09 20:33:00,
2013-04-09 15:36:00,45.7,44.6,29.90,NNE,31,10.0,18.0,96,0.00,,,0.41,72,Wunderground v.1.15,2013-04-09 20:36:00,
2013-04-09 15:39:00,45.7,44.6,29.90,NNE,30,10.0,18.0,96,0.00,,,0.41,72,Wunderground v.1.15,2013-04-09 20:39:00,
2013-04-09 15:41:00,45.6,44.5,29.90,NNE,23,10.0,12.0,96,0.00,,,0.41,65,Wunderground v.1.15,2013-04-09 20:41:00,
2013-04-09 15:45:00,45.5,44.4,29.90,NNE,22,10.0,14.0,96,0.00,,,0.41,56,Wunderground v.1.15,2013-04-09 20:45:00,
2013-04-09 15:46:00,45.5,44.4,29.90,NNE,29,10.0,14.0,96,0.00,,,0.41,53,Wunderground v.1.15,2013-04-09 20:46:00,
2013-04-09 15:48:00,45.5,44.4,29.90,NE,35,10.0,14.0,96,0.00,,,0.41,54,Wunderground v.1.15,2013-04-09 20:48:00,
2013-04-09 15:50:00,45.5,44.4,29.90,NE,41,9.0,9.0,96,0.00,,,0.41,56,Wunderground v.1.15,2013-04-09 20:50:00,
2013-04-09 15:51:00,45.5,44.4,29.90,NE,36,9.0,9.0,96,0.00,,,0.41,65,Wunderground v.1.15,2013-04-09 20:51:00,
2013-04-09 15:52:00,45.5,44.4,29.90,ENE,63,9.0,18.0,96,0.00,,,0.41,63,Wunderground v.1.15,2013-04-09 20:52:00,
2013-04-09 15:55:00,45.3,44.0,29.90,NE,54,10.0,18.0,95,0.00,,,0.41,69,Wunderground v.1.15,2013-04-09 20:55:00,
2013-04-09 15:57:00,45.4,44.3,29.90,ENE,59,11.0,18.0,96,0.00,,,0.41,63,Wunderground v.1.15,2013-04-09 20:57:00,
2013-04-09 15:58:00,45.4,44.3,29.90,ENE,62,11.0,18.0,96,0.00,,,0.41,62,Wunderground v.1.15,2013-04-09 20:58:00,
2013-04-09 16:01:00,45.4,44.3,29.91,NE,36,11.0,21.0,96,0.00,,,0.41,53,Wunderground v.1.15,2013-04-09 21:01:00,
2013-04-09 16:03:00,45.4,44.3,29.91,NNE,22,10.0,21.0,96,0.00,,,0.41,60,Wunderground v.1.15,2013-04-09 21:03:00,
2013-04-09 16:04:00,45.4,44.3,29.91,NNE,25,10.0,21.0,96,0.00,,,0.41,67,Wunderground v.1.15,2013-04-09 21:04:00,
2013-04-09 16:08:00,45.2,43.9,29.91,ENE,62,10.0,21.0,95,0.00,,,0.41,76,Wunderground v.1.15,2013-04-09 21:08:00,
2013-04-09 16:09:00,45.2,43.9,29.91,ENE,65,10.0,21.0,95,0.00,,,0.41,77,Wunderground v.1.15,2013-04-09 21:09:00,
2013-04-09 16:11:00,45.2,44.1,29.91,NNE,30,11.0,13.0,96,0.00,,,0.41,70,Wunderground v.1.15,2013-04-09 21:11:00,
2013-04-09 16:14:00,45.2,44.1,29.91,NE,47,10.0,13.0,96,0.00,,,0.41,67,Wunderground v.1.15,2013-04-09 21:14:00,
2013-04-09 16:15:00,45.2,44.1,29.91,NE,54,10.0,13.0,96,0.00,,,0.41,67,Wunderground v.1.15,2013-04-09 21:15:00,
2013-04-09 16:17:00,45.2,44.1,29.91,NE,37,10.0,13.0,96,0.00,,,0.41,74,Wunderground v.1.15,2013-04-09 21:17:00,
2013-04-09 16:18:00,45.2,44.1,29.91,NE,52,10.0,13.0,96,0.00,,,0.41,72,Wunderground v.1.15,2013-04-09 21:18:00,
2013-04-09 16:20:00,45.2,44.1,29.91,NE,46,10.0,13.0,96,0.00,,,0.41,74,Wunderground v.1.15,2013-04-09 21:20:00,
2013-04-09 16:24:00,45.2,44.1,29.91,NE,49,10.0,13.0,96,0.00,,,0.41,65,Wunderground v.1.15,2013-04-09 21:24:00,
2013-04-09 16:25:00,45.3,44.2,29.91,NNE,19,10.0,13.0,96,0.00,,,0.41,63,Wunderground v.1.15,2013-04-09 21:25:00,
2013-04-09 16:26:00,45.3,44.2,29.91,ENE,58,9.0,13.0,96,0.00,,,0.41,60,Wunderground v.1.15,2013-04-09 21:26:00,
2013-04-09 16:31:00,45.2,44.1,29.92,NNE,26,9.0,12.0,96,0.00,,,0.41,63,Wunderground v.1.15,2013-04-09 21:31:00,
2013-04-09 16:34:00,45.2,44.1,29.92,NNE,30,9.0,13.0,96,0.00,,,0.41,56,Wunderground v.1.15,2013-04-09 21:34:00,
2013-04-09 16:36:00,45.2,44.1,29.92,NE,46,10.0,13.0,96,0.00,,,0.41,44,Wunderground v.1.15,2013-04-09 21:36:00,
2013-04-09 16:37:00,45.2,44.1,29.92,NNE,33,10.0,13.0,96,0.00,,,0.41,40,Wunderground v.1.15,2013-04-09 21:37:00,
2013-04-09 16:40:00,45.2,44.1,29.92,ENE,59,10.0,13.0,96,0.00,,,0.41,33,Wunderground v.1.15,2013-04-09 21:40:00,
2013-04-09 16:42:00,45.1,44.0,29.92,NNE,17,10.0,13.0,96,0.00,,,0.41,46,Wunderground v.1.15,2013-04-09 21:42:00,
2013-04-09 16:44:00,45.1,44.0,29.92,NE,35,10.0,13.0,96,0.00,,,0.41,47,Wunderground v.1.15,2013-04-09 21:44:00,
2013-04-09 16:49:00,45.0,43.9,29.91,ENE,65,10.0,14.0,96,0.00,,,0.41,37,Wunderground v.1.15,2013-04-09 21:49:00,
2013-04-09 16:50:00,45.0,43.9,29.91,NE,48,11.0,14.0,96,0.00,,,0.41,37,Wunderground v.1.15,2013-04-09 21:50:00,
2013-04-09 16:54:00,44.9,43.8,29.91,NE,38,11.0,14.0,96,0.00,,,0.41,42,Wunderground v.1.15,2013-04-09 21:54:00,
2013-04-09 16:55:00,44.9,43.8,29.91,NNE,18,11.0,14.0,96,0.00,,,0.41,46,Wunderground v.1.15,2013-04-09 21:55:00,
2013-04-09 16:56:00,44.9,43.8,29.91,ENE,62,11.0,14.0,96,0.00,,,0.41,47,Wunderground v.1.15,2013-04-09 21:56:00,
2013-04-09 17:01:00,44.8,43.7,29.91,NE,50,11.0,19.0,96,0.00,,,0.41,47,Wunderground v.1.15,2013-04-09 22:01:00,
2013-04-09 17:02:00,44.8,43.7,29.91,NE,39,11.0,19.0,96,0.00,,,0.41,46,Wunderground v.1.15,2013-04-09 22:02:00,
2013-04-09 17:06:00,44.8,43.7,29.91,NE,54,12.0,19.0,96,0.00,,,0.41,40,Wunderground v.1.15,2013-04-09 22:06:00,
2013-04-09 17:07:00,44.8,43.7,29.91,ENE,74,12.0,19.0,96,0.00,,,0.41,40,Wunderground v.1.15,2013-04-09 22:07:00,
2013-04-09 17:10:00,44.8,43.7,29.91,ENE,67,12.0,18.0,96,0.00,,,0.41,46,Wunderground v.1.15,2013-04-09 22:10:00,
2013-04-09 17:15:00,44.7,43.4,29.90,NE,53,13.0,19.0,95,0.00,,,0.41,46,Wunderground v.1.15,2013-04-09 22:15:00,
2013-04-09 17:16:00,44.7,43.4,29.90,ENE,61,13.0,19.0,95,0.00,,,0.41,44,Wunderground v.1.15,2013-04-09 22:16:00,
2013-04-09 17:18:00,44.8,43.7,29.90,NE,44,13.0,19.0,96,0.00,,,0.41,42,Wunderground v.1.15,2013-04-09 22:18:00,
2013-04-09 17:19:00,44.8,43.7,29.91,NE,51,14.0,19.0,96,0.00,,,0.41,42,Wunderground v.1.15,2013-04-09 22:19:00,
2013-04-09 17:21:00,44.8,43.5,29.90,NE,49,13.0,14.0,95,0.00,,,0.41,47,Wunderground v.1.15,2013-04-09 22:21:00,
2013-04-09 17:22:00,44.8,43.7,29.90,NNE,29,13.0,14.0,96,0.00,,,0.41,47,Wunderground v.1.15,2013-04-09 22:22:00,
2013-04-09 17:24:00,44.8,43.5,29.90,ENE,70,12.0,18.0,95,0.00,,,0.41,47,Wunderground v.1.15,2013-04-09 22:24:00,
2013-04-09 17:27:00,44.8,43.5,29.90,NE,36,13.0,18.0,95,0.00,,,0.41,40,Wunderground v.1.15,2013-04-09 22:27:00,
2013-04-09 17:29:00,44.7,43.4,29.90,ENE,65,13.0,18.0,95,0.00,,,0.41,37,Wunderground v.1.15,2013-04-09 22:29:00,
2013-04-09 17:30:00,44.7,43.4,29.90,NNE,30,13.0,13.0,95,0.00,,,0.41,40,Wunderground v.1.15,2013-04-09 22:30:00,
2013-04-09 17:34:00,44.7,43.4,29.89,NE,45,13.0,13.0,95,0.00,,,0.41,49,Wunderground v.1.15,2013-04-09 22:34:00,
2013-04-09 17:35:00,44.7,43.4,29.89,NE,50,13.0,13.0,95,0.00,,,0.41,49,Wunderground v.1.15,2013-04-09 22:35:00,
2013-04-09 17:40:00,44.6,43.3,29.90,ENE,66,14.0,14.0,95,0.00,,,0.41,33,Wunderground v.1.15,2013-04-09 22:40:00,
2013-04-09 17:41:00,44.6,43.3,29.89,ENE,71,14.0,14.0,95,0.00,,,0.41,32,Wunderground v.1.15,2013-04-09 22:41:00,
2013-04-09 17:42:00,44.6,43.3,29.89,ENE,63,14.0,14.0,95,0.00,,,0.41,28,Wunderground v.1.15,2013-04-09 22:42:00,
2013-04-09 17:46:00,44.6,43.3,29.89,ENE,76,14.0,18.0,95,0.00,,,0.41,21,Wunderground v.1.15,2013-04-09 22:46:00,
2013-04-09 17:47:00,44.6,43.3,29.88,ENE,57,13.0,18.0,95,0.00,,,0.41,21,Wunderground v.1.15,2013-04-09 22:47:00,
2013-04-09 17:49:00,44.6,43.3,29.89,ENE,62,13.0,18.0,95,0.00,,,0.41,23,Wunderground v.1.15,2013-04-09 22:49:00,
2013-04-09 17:52:00,44.5,43.2,29.89,ENE,69,13.0,13.0,95,0.00,,,0.41,21,Wunderground v.1.15,2013-04-09 22:52:00,
2013-04-09 17:53:00,44.5,43.2,29.89,ENE,61,13.0,15.0,95,0.00,,,0.41,25,Wunderground v.1.15,2013-04-09 22:53:00,
2013-04-09 17:54:00,44.5,43.2,29.89,NE,40,13.0,15.0,95,0.00,,,0.41,23,Wunderground v.1.15,2013-04-09 22:54:00,
2013-04-09 17:56:00,44.5,43.2,29.89,NE,51,13.0,17.0,95,0.00,,,0.41,19,Wunderground v.1.15,2013-04-09 22:56:00,
2013-04-09 17:58:00,44.4,43.1,29.90,ENE,64,13.0,17.0,95,0.00,,,0.41,18,Wunderground v.1.15,2013-04-09 22:58:00,
2013-04-09 18:00:00,44.3,43.0,29.90,NE,46,13.0,14.0,95,0.00,,,0.41,14,Wunderground v.1.15,2013-04-09 23:00:00,
2013-04-09 18:01:00,44.3,43.0,29.90,ENE,61,13.0,15.0,95,0.00,,,0.41,12,Wunderground v.1.15,2013-04-09 23:01:00,
2013-04-09 18:03:00,44.3,43.2,29.90,ENE,61,13.0,18.0,96,0.00,,,0.41,12,Wunderground v.1.15,2013-04-09 23:03:00,
2013-04-09 18:04:00,44.2,43.1,29.91,NE,55,13.0,18.0,96,0.00,,,0.41,12,Wunderground v.1.15,2013-04-09 23:04:00,
2013-04-09 18:05:00,44.1,42.8,29.91,NE,44,13.0,18.0,95,0.00,,,0.41,11,Wunderground v.1.15,2013-04-09 23:05:00,
2013-04-09 18:09:00,44.0,42.7,29.91,NE,55,11.0,18.0,95,0.00,,,0.41,9,Wunderground v.1.15,2013-04-09 23:09:00,
2013-04-09 18:10:00,44.0,42.7,29.91,ENE,62,11.0,13.0,95,0.00,,,0.41,9,Wunderground v.1.15,2013-04-09 23:10:00,
2013-04-09 18:12:00,44.0,42.7,29.91,NE,45,10.0,13.0,95,0.00,,,0.41,9,Wunderground v.1.15,2013-04-09 23:12:00,
2013-04-09 18:14:00,44.0,42.7,29.91,NE,49,11.0,14.0,95,0.00,,,0.41,9,Wunderground v.1.15,2013-04-09 23:14:00,
2013-04-09 18:17:00,43.9,42.6,29.91,NE,51,12.0,14.0,95,0.00,,,0.41,9,Wunderground v.1.15,2013-04-09 23:17:00,
2013-04-09 18:18:00,43.8,42.7,29.91,NE,51,12.0,14.0,96,0.00,,,0.41,9,Wunderground v.1.15,2013-04-09 23:18:00,
2013-04-09 18:19:00,43.8,42.7,29.91,NE,46,12.0,14.0,96,0.00,,,0.41,7,Wunderground v.1.15,2013-04-09 23:19:00,
2013-04-09 18:22:00,43.8,42.7,29.91,NE,41,13.0,14.0,96,0.00,,,0.41,5,Wunderground v.1.15,2013-04-09 23:22:00,
2013-04-09 18:24:00,43.8,42.7,29.91,NE,53,13.0,16.0,96,0.00,,,0.41,0,Wunderground v.1.15,2013-04-09 23:24:00,
2013-04-09 18:27:00,43.7,42.6,29.91,ENE,62,13.0,16.0,96,0.00,,,0.41,0,Wunderground v.1.15,2013-04-09 23:27:00,
2013-04-09 18:30:00,43.7,42.6,29.92,ENE,65,13.0,14.0,96,0.00,,,0.41,0,Wunderground v.1.15,2013-04-09 23:30:00,
2013-04-09 18:32:00,43.7,42.6,29.92,NE,53,13.0,17.0,96,0.00,,,0.41,0,Wunderground v.1.15,2013-04-09 23:32:00,
2013-04-09 18:33:00,43.7,42.6,29.92,NE,42,13.0,18.0,96,0.00,,,0.41,0,Wunderground v.1.15,2013-04-09 23:33:00,
2013-04-09 18:34:00,43.6,42.5,29.92,ENE,61,13.0,18.0,96,0.00,,,0.41,0,Wunderground v.1.15,2013-04-09 23:34:00,
2013-04-09 18:39:00,43.7,42.6,29.92,NE,44,13.0,18.0,96,0.00,,,0.41,0,Wunderground v.1.15,2013-04-09 23:39:00,
2013-04-09 18:40:00,43.6,42.5,29.92,ENE,59,13.0,13.0,96,0.00,,,0.41,0,Wunderground v.1.15,2013-04-09 23:40:00,
2013-04-09 18:42:00,43.7,42.6,29.92,NNE,18,12.0,13.0,96,0.00,,,0.41,0,Wunderground v.1.15,2013-04-09 23:42:00,
2013-04-09 18:46:00,43.6,42.5,29.92,NE,37,10.0,14.0,96,0.00,,,0.41,0,Wunderground v.1.15,2013-04-09 23:46:00,
2013-04-09 18:48:00,43.6,42.5,29.92,NE,49,10.0,14.0,96,0.00,,,0.41,0,Wunderground v.1.15,2013-04-09 23:48:00,
2013-04-09 18:51:00,43.5,42.4,29.92,ENE,72,10.0,13.0,96,0.00,,,0.41,0,Wunderground v.1.15,2013-04-09 23:51:00,
2013-04-09 18:52:00,43.5,42.4,29.92,NE,49,10.0,16.0,96,0.00,,,0.41,0,Wunderground v.1.15,2013-04-09 23:52:00,
2013-04-09 18:55:00,43.4,42.3,29.92,ENE,62,11.0,16.0,96,0.00,,,0.41,0,Wunderground v.1.15,2013-04-09 23:55:00,
2013-04-09 18:57:00,43.4,42.3,29.92,NE,49,11.0,16.0,96,0.00,,,0.41,0,Wunderground v.1.15,2013-04-09 23:57:00,
2013-04-09 18:58:00,43.5,42.4,29.92,ENE,65,11.0,16.0,96,0.00,,,0.41,0,Wunderground v.1.15,2013-04-09 23:58:00,
2013-04-09 19:00:00,43.5,42.4,29.93,NE,35,12.0,14.0,96,0.00,,,0.41,0,Wunderground v.1.15,2013-04-10 00:00:00,
2013-04-09 19:03:00,43.5,42.4,29.93,ENE,57,12.0,24.0,96,0.00,,,0.41,0,Wunderground v.1.15,2013-04-10 00:03:00,
2013-04-09 19:05:00,43.5,42.4,29.93,NE,45,10.0,24.0,96,0.00,,,0.41,0,Wunderground v.1.15,2013-04-10 00:05:00,
2013-04-09 19:06:00,43.5,42.4,29.93,NE,49,10.0,24.0,96,0.00,,,0.41,0,Wunderground v.1.15,2013-04-10 00:06:00,
2013-04-09 19:09:00,43.5,42.4,29.93,NE,50,10.0,24.0,96,0.00,,,0.41,0,Wunderground v.1.15,2013-04-10 00:09:00,
2013-04-09 19:10:00,43.5,42.4,29.93,ENE,63,9.0,10.0,96,0.00,,,0.41,0,Wunderground v.1.15,2013-04-10 00:10:00,
2013-04-09 19:14:00,43.4,42.3,29.93,NE,44,9.0,14.0,96,0.00,,,0.41,0,Wunderground v.1.15,2013-04-10 00:14:00,
2013-04-09 19:15:00,43.4,42.3,29.93,ENE,65,10.0,14.0,96,0.00,,,0.41,0,Wunderground v.1.15,2013-04-10 00:15:00,
2013-04-09 19:17:00,43.4,42.3,29.93,NE,51,11.0,18.0,96,0.00,,,0.41,0,Wunderground v.1.15,2013-04-10 00:17:00,
2013-04-09 19:19:00,43.3,42.2,29.92,ENE,63,11.0,18.0,96,0.00,,,0.42,0,Wunderground v.1.15,2013-04-10 00:19:00,
2013-04-09 19:21:00,43.3,42.2,29.93,ENE,61,12.0,13.0,96,0.00,,,0.42,0,Wunderground v.1.15,2013-04-10 00:21:00,
2013-04-09 19:22:00,43.2,42.1,29.93,NE,49,12.0,13.0,96,0.00,,,0.42,0,Wunderground v.1.15,2013-04-10 00:22:00,
2013-04-09 19:24:00,43.2,42.1,29.94,ENE,57,12.0,13.0,96,0.00,,,0.42,0,Wunderground v.1.15,2013-04-10 00:24:00,
2013-04-09 19:27:00,43.2,42.1,29.94,NE,49,10.0,13.0,96,0.00,,,0.42,0,Wunderground v.1.15,2013-04-10 00:27:00,
2013-04-09 19:28:00,43.3,42.2,29.94,NE,53,10.0,13.0,96,0.00,,,0.42,0,Wunderground v.1.15,2013-04-10 00:28:00,
2013-04-09 19:30:00,43.2,42.1,29.94,NE,49,10.0,15.0,96,0.00,,,0.42,0,Wunderground v.1.15,2013-04-10 00:30:00,
2013-04-09 19:34:00,43.3,42.2,29.93,ENE,57,10.0,15.0,96,0.04,,,0.43,0,Wunderground v.1.15,2013-04-10 00:34:00,
2013-04-09 19:35:00,43.3,42.2,29.93,ENE,73,10.0,15.0,96,0.04,,,0.43,0,Wunderground v.1.15,2013-04-10 00:35:00,
2013-04-09 19:36:00,43.3,42.2,29.93,NE,43,9.0,15.0,96,0.04,,,0.43,0,Wunderground v.1.15,2013-04-10 00:36:00,
2013-04-09 19:38:00,43.3,42.2,29.93,NE,54,9.0,15.0,96,0.04,,,0.43,0,Wunderground v.1.15,2013-04-10 00:38:00,
2013-04-09 19:40:00,43.3,42.2,29.93,ENE,60,9.0,9.0,96,0.11,,,0.44,0,Wunderground v.1.15,2013-04-10 00:40:00,
2013-04-09 19:43:00,43.2,42.1,29.93,NE,52,9.0,11.0,96,0.11,,,0.44,0,Wunderground v.1.15,2013-04-10 00:43:00,
2013-04-09 19:44:00,43.2,42.1,29.92,NE,47,9.0,11.0,96,0.11,,,0.44,0,Wunderground v.1.15,2013-04-10 00:44:00,
2013-04-09 19:46:00,43.2,42.1,29.93,ENE,57,10.0,12.0,96,0.09,,,0.44,0,Wunderground v.1.15,2013-04-10 00:46:00,
2013-04-09 19:47:00,43.2,42.1,29.93,NE,53,10.0,12.0,96,0.08,,,0.44,0,Wunderground v.1.15,2013-04-10 00:47:00,
2013-04-09 19:49:00,43.2,42.1,29.92,ENE,59,9.0,12.0,96,0.06,,,0.44,0,Wunderground v.1.15,2013-04-10 00:49:00,
2013-04-09 19:50:00,43.2,42.1,29.93,ENE,63,9.0,9.0,96,0.06,,,0.44,0,Wunderground v.1.15,2013-04-10 00:50:00,
2013-04-09 19:54:00,43.2,42.1,29.93,NE,52,8.0,9.0,96,0.04,,,0.44,0,Wunderground v.1.15,2013-04-10 00:54:00,
2013-04-09 19:55:00,43.2,42.1,29.93,ENE,61,7.0,9.0,96,0.04,,,0.44,0,Wunderground v.1.15,2013-04-10 00:55:00,
2013-04-09 19:57:00,43.2,42.1,29.93,ENE,57,7.0,12.0,96,0.00,,,0.44,0,Wunderground v.1.15,2013-04-10 00:57:00,
2013-04-09 20:00:00,43.2,42.1,29.93,NE,55,7.0,7.0,96,0.00,,,0.44,0,Wunderground v.1.15,2013-04-10 01:00:00,
2013-04-09 20:01:00,43.2,42.1,29.93,ENE,61,7.0,22.0,96,0.00,,,0.44,0,Wunderground v.1.15,2013-04-10 01:01:00,
2013-04-09 20:04:00,43.3,42.2,29.93,NE,49,7.0,22.0,96,0.00,,,0.44,0,Wunderground v.1.15,2013-04-10 01:04:00,
2013-04-09 20:05:00,43.3,42.2,29.93,ENE,76,7.0,22.0,96,0.00,,,0.44,0,Wunderground v.1.15,2013-04-10 01:05:00,
2013-04-09 20:08:00,43.4,42.3,29.93,ENE,69,6.0,22.0,96,0.00,,,0.44,0,Wunderground v.1.15,2013-04-10 01:08:00,
2013-04-09 20:09:00,43.4,42.3,29.92,ENE,67,7.0,22.0,96,0.00,,,0.44,0,Wunderground v.1.15,2013-04-10 01:09:00,
2013-04-09 20:11:00,43.4,42.3,29.93,ENE,58,7.0,8.0,96,0.00,,,0.44,0,Wunderground v.1.15,2013-04-10 01:11:00,
2013-04-09 20:13:00,43.4,42.3,29.93,ENE,69,7.0,8.0,96,0.00,,,0.45,0,Wunderground v.1.15,2013-04-10 01:13:00,
2013-04-09 20:17:00,43.4,42.3,29.92,ENE,77,7.0,10.0,96,0.00,,,0.45,0,Wunderground v.1.15,2013-04-10 01:17:00,
2013-04-09 20:18:00,43.4,42.3,29.92,NE,43,7.0,10.0,96,0.00,,,0.45,0,Wunderground v.1.15,2013-04-10 01:18:00,
2013-04-09 20:19:00,43.4,42.3,29.92,NE,47,7.0,10.0,96,0.00,,,0.45,0,Wunderground v.1.15,2013-04-10 01:19:00,
2013-04-09 20:20:00,43.4,42.3,29.92,ENE,71,7.0,7.0,96,0.00,,,0.45,0,Wunderground v.1.15,2013-04-10 01:20:00,
2013-04-09 20:23:00,43.4,42.3,29.92,NE,51,7.0,8.0,96,0.00,,,0.45,0,Wunderground v.1.15,2013-04-10 01:23:00,
2013-04-09 20:24:00,43.4,42.3,29.92,ENE,61,7.0,8.0,96,0.00,,,0.45,0,Wunderground v.1.15,2013-04-10 01:24:00,
2013-04-09 20:26:00,43.4,42.3,29.92,ENE,64,7.0,8.0,96,0.00,,,0.45,0,Wunderground v.1.15,2013-04-10 01:26:00,
2013-04-09 20:28:00,43.4,42.3,29.92,ENE,60,7.0,8.0,96,0.00,,,0.45,0,Wunderground v.1.15,2013-04-10 01:28:00,
2013-04-09 20:29:00,43.4,42.3,29.92,ENE,69,7.0,8.0,96,0.00,,,0.45,0,Wunderground v.1.15,2013-04-10 01:29:00,
2013-04-09 20:34:00,43.4,42.3,29.93,ENE,58,6.0,10.0,96,0.00,,,0.45,0,Wunderground v.1.15,2013-04-10 01:34:00,
2013-04-09 20:35:00,43.4,42.3,29.93,ENE,61,7.0,10.0,96,0.00,,,0.45,0,Wunderground v.1.15,2013-04-10 01:35:00,
2013-04-09 20:37:00,43.4,42.3,29.93,ENE,57,6.0,10.0,96,0.00,,,0.45,0,Wunderground v.1.15,2013-04-10 01:37:00,
2013-04-09 20:42:00,43.4,42.3,29.94,NE,51,6.0,6.0,96,0.00,,,0.45,0,Wunderground v.1.15,2013-04-10 01:42:00,
2013-04-09 20:43:00,43.5,42.4,29.94,NE,55,6.0,7.0,96,0.00,,,0.45,0,Wunderground v.1.15,2013-04-10 01:43:00,
2013-04-09 20:45:00,43.5,42.4,29.95,ENE,59,6.0,8.0,96,0.00,,,0.45,0,Wunderground v.1.15,2013-04-10 01:45:00,
2013-04-09 20:47:00,43.5,42.4,29.95,NE,53,6.0,8.0,96,0.00,,,0.45,0,Wunderground v.1.15,2013-04-10 01:47:00,
2013-04-09 20:51:00,43.6,42.5,29.96,ENE,61,6.0,7.0,96,0.00,,,0.45,0,Wunderground v.1.15,2013-04-10 01:51:00,
2013-04-09 20:52:00,43.6,42.5,29.96,ENE,57,6.0,7.0,96,0.00,,,0.45,0,Wunderground v.1.15,2013-04-10 01:52:00,
2013-04-09 20:53:00,43.6,42.5,29.96,ENE,57,6.0,7.0,96,0.00,,,0.45,0,Wunderground v.1.15,2013-04-10 01:53:00,
2013-04-09 20:54:00,43.6,42.5,29.96,NE,44,6.0,7.0,96,0.00,,,0.45,0,Wunderground v.1.15,2013-04-10 01:54:00,
2013-04-09 20:57:00,43.6,42.5,29.96,ENE,60,6.0,8.0,96,0.00,,,0.45,0,Wunderground v.1.15,2013-04-10 01:57:00,
2013-04-09 20:58:00,43.6,42.5,29.96,ENE,58,6.0,8.0,96,0.00,,,0.45,0,Wunderground v.1.15,2013-04-10 01:58:00,
2013-04-09 20:59:00,43.6,42.5,29.97,ENE,58,5.0,8.0,96,0.00,,,0.45,0,Wunderground v.1.15,2013-04-10 01:59:00,
2013-04-09 21:02:00,43.6,42.5,29.97,NE,54,5.0,18.0,96,0.00,,,0.45,0,Wunderground v.1.15,2013-04-10 02:02:00,
2013-04-09 21:04:00,43.6,42.5,29.97,NE,51,5.0,18.0,96,0.00,,,0.45,0,Wunderground v.1.15,2013-04-10 02:04:00,
2013-04-09 21:05:00,43.6,42.5,29.98,North,9,4.0,18.0,96,0.00,,,0.45,0,Wunderground v.1.15,2013-04-10 02:05:00,
2013-04-09 21:08:00,43.7,42.6,29.99,NNW,344,4.0,18.0,96,0.00,,,0.45,0,Wunderground v.1.15,2013-04-10 02:08:00,
2013-04-09 21:09:00,43.7,42.6,29.98,NNW,346,4.0,18.0,96,0.00,,,0.45,0,Wunderground v.1.15,2013-04-10 02:09:00,
2013-04-09 21:11:00,43.7,42.6,29.98,NNE,15,5.0,5.0,96,0.00,,,0.45,0,Wunderground v.1.15,2013-04-10 02:11:00,
2013-04-09 21:13:00,43.7,42.6,29.97,North,351,5.0,6.0,96,0.00,,,0.45,0,Wunderground v.1.15,2013-04-10 02:13:00,
2013-04-09 21:14:00,43.8,42.7,29.97,NNE,16,5.0,6.0,96,0.00,,,0.45,0,Wunderground v.1.15,2013-04-10 02:14:00,
2013-04-09 21:18:00,43.7,42.6,29.97,NNE,30,6.0,7.0,96,0.00,,,0.45,0,Wunderground v.1.15,2013-04-10 02:18:00,
2013-04-09 21:20:00,43.7,42.6,29.96,NE,37,6.0,6.0,96,0.00,,,0.45,0,Wunderground v.1.15,2013-04-10 02:20:00,
2013-04-09 21:22:00,43.7,42.6,29.95,NE,38,6.0,6.0,96,0.00,,,0.45,0,Wunderground v.1.15,2013-04-10 02:22:00,
2013-04-09 21:23:00,43.7,42.6,29.95,ENE,59,6.0,8.0,96,0.00,,,0.46,0,Wunderground v.1.15,2013-04-10 02:23:00,
2013-04-09 21:27:00,43.6,42.5,29.95,NE,53,7.0,10.0,96,0.00,,,0.46,0,Wunderground v.1.15,2013-04-10 02:27:00,
2013-04-09 21:28:00,43.6,42.5,29.95,NE,55,7.0,10.0,96,0.00,,,0.46,0,Wunderground v.1.15,2013-04-10 02:28:00,
2013-04-09 21:29:00,43.6,42.5,29.95,NE,45,7.0,10.0,96,0.00,,,0.46,0,Wunderground v.1.15,2013-04-10 02:29:00,
2013-04-09 21:30:00,43.6,42.5,29.96,NNE,26,7.0,7.0,96,0.00,,,0.46,0,Wunderground v.1.15,2013-04-10 02:30:00,
2013-04-09 21:35:00,43.6,42.5,29.97,ENE,57,6.0,7.0,96,0.00,,,0.46,0,Wunderground v.1.15,2013-04-10 02:35:00,
2013-04-09 21:36:00,43.6,42.5,29.97,NE,50,6.0,7.0,96,0.00,,,0.46,0,Wunderground v.1.15,2013-04-10 02:36:00,
2013-04-09 21:37:00,43.6,42.5,29.97,NE,46,5.0,7.0,96,0.00,,,0.46,0,Wunderground v.1.15,2013-04-10 02:37:00,
2013-04-09 21:41:00,43.6,42.5,29.97,NE,51,5.0,6.0,96,0.00,,,0.46,0,Wunderground v.1.15,2013-04-10 02:41:00,
2013-04-09 21:42:00,43.5,42.4,29.97,NE,38,5.0,6.0,96,0.00,,,0.46,0,Wunderground v.1.15,2013-04-10 02:42:00,
2013-04-09 21:44:00,43.5,42.4,29.97,NNE,28,5.0,8.0,96,0.00,,,0.46,0,Wunderground v.1.15,2013-04-10 02:44:00,
2013-04-09 21:46:00,43.4,42.3,29.97,NE,35,6.0,8.0,96,0.00,,,0.46,0,Wunderground v.1.15,2013-04-10 02:46:00,
2013-04-09 21:48:00,43.4,42.3,29.97,NNE,15,6.0,8.0,96,0.00,,,0.46,0,Wunderground v.1.15,2013-04-10 02:48:00,
2013-04-09 21:51:00,43.4,42.3,29.97,NE,36,7.0,9.0,96,0.00,,,0.46,0,Wunderground v.1.15,2013-04-10 02:51:00,
2013-04-09 21:52:00,43.4,42.3,29.97,NNE,28,7.0,9.0,96,0.00,,,0.46,0,Wunderground v.1.15,2013-04-10 02:52:00,
2013-04-09 21:53:00,43.4,42.3,29.97,NE,36,7.0,9.0,96,0.00,,,0.46,0,Wunderground v.1.15,2013-04-10 02:53:00,
2013-04-09 21:55:00,43.4,42.3,29.97,NE,42,7.0,9.0,96,0.00,,,0.46,0,Wunderground v.1.15,2013-04-10 02:55:00,
2013-04-09 21:57:00,43.4,42.3,29.97,NNE,24,7.0,9.0,96,0.00,,,0.46,0,Wunderground v.1.15,2013-04-10 02:57:00,
2013-04-09 21:59:00,43.4,42.3,29.97,NE,46,7.0,9.0,96,0.00,,,0.46,0,Wunderground v.1.15,2013-04-10 02:59:00,
2013-04-09 22:03:00,43.3,42.2,29.97,NNE,15,7.0,14.0,96,0.00,,,0.46,0,Wunderground v.1.15,2013-04-10 03:03:00,
2013-04-09 22:08:00,43.3,42.2,29.98,NNE,27,7.0,14.0,96,0.00,,,0.46,0,Wunderground v.1.15,2013-04-10 03:08:00,
2013-04-09 22:10:00,43.2,42.1,29.98,NE,55,6.0,8.0,96,0.00,,,0.46,0,Wunderground v.1.15,2013-04-10 03:10:00,
2013-04-09 22:13:00,43.2,42.1,29.98,NE,42,6.0,9.0,96,0.00,,,0.46,0,Wunderground v.1.15,2013-04-10 03:13:00,
2013-04-09 22:14:00,43.2,42.1,29.98,NE,36,6.0,9.0,96,0.00,,,0.46,0,Wunderground v.1.15,2013-04-10 03:14:00,
2013-04-09 22:15:00,43.2,42.1,29.98,NNE,23,6.0,9.0,96,0.00,,,0.46,0,Wunderground v.1.15,2013-04-10 03:15:00,
2013-04-09 22:18:00,43.2,42.1,29.98,NNE,14,6.0,9.0,96,0.00,,,0.46,0,Wunderground v.1.15,2013-04-10 03:18:00,
2013-04-09 22:20:00,43.2,42.1,29.98,NNE,22,6.0,8.0,96,0.00,,,0.46,0,Wunderground v.1.15,2013-04-10 03:20:00,
2013-04-09 22:21:00,43.2,42.1,29.98,NNE,25,6.0,8.0,96,0.00,,,0.46,0,Wunderground v.1.15,2013-04-10 03:21:00,
2013-04-09 22:25:00,43.1,42.0,29.98,NE,38,7.0,10.0,96,0.00,,,0.46,0,Wunderground v.1.15,2013-04-10 03:25:00,
2013-04-09 22:27:00,43.1,42.0,29.98,NNE,28,7.0,10.0,96,0.00,,,0.46,0,Wunderground v.1.15,2013-04-10 03:27:00,
2013-04-09 22:28:00,43.1,42.0,29.98,NE,40,7.0,10.0,96,0.00,,,0.46,0,Wunderground v.1.15,2013-04-10 03:28:00,
2013-04-09 22:29:00,43.1,42.0,29.98,NE,44,7.0,10.0,96,0.00,,,0.46,0,Wunderground v.1.15,2013-04-10 03:29:00,
2013-04-09 22:30:00,43.1,42.0,29.97,NE,50,7.0,13.0,96,0.00,,,0.46,0,Wunderground v.1.15,2013-04-10 03:30:00,
2013-04-09 22:35:00,42.9,41.8,29.97,ENE,63,8.0,13.0,96,0.00,,,0.46,0,Wunderground v.1.15,2013-04-10 03:35:00,
2013-04-09 22:36:00,42.9,41.8,29.97,NE,53,9.0,13.0,96,0.00,,,0.46,0,Wunderground v.1.15,2013-04-10 03:36:00,
2013-04-09 22:38:00,42.9,41.8,29.97,NNE,33,9.0,13.0,96,0.00,,,0.46,0,Wunderground v.1.15,2013-04-10 03:38:00,
2013-04-09 22:40:00,42.9,41.8,29.97,NE,42,9.0,9.0,96,0.00,,,0.46,0,Wunderground v.1.15,2013-04-10 03:40:00,
2013-04-09 22:41:00,42.9,41.8,29.97,NNE,33,10.0,10.0,96,0.00,,,0.46,0,Wunderground v.1.15,2013-04-10 03:41:00,
2013-04-09 22:43:00,42.9,41.8,29.98,NNE,27,9.0,10.0,96,0.00,,,0.46,0,Wunderground v.1.15,2013-04-10 03:43:00,
2013-04-09 22:47:00,42.9,41.8,29.98,North,10,9.0,12.0,96,0.00,,,0.46,0,Wunderground v.1.15,2013-04-10 03:47:00,
2013-04-09 22:48:00,42.9,41.8,29.98,NNE,24,8.0,12.0,96,0.00,,,0.46,0,Wunderground v.1.15,2013-04-10 03:48:00,
2013-04-09 22:50:00,42.9,41.8,29.98,North,5,8.0,15.0,96,0.00,,,0.46,0,Wunderground v.1.15,2013-04-10 03:50:00,
2013-04-09 22:51:00,42.9,41.8,29.98,NNE,13,8.0,15.0,96,0.00,,,0.46,0,Wunderground v.1.15,2013-04-10 03:51:00,
2013-04-09 22:53:00,42.8,41.7,29.98,NNE,23,8.0,15.0,96,0.00,,,0.46,0,Wunderground v.1.15,2013-04-10 03:53:00,
2013-04-09 22:56:00,42.8,41.7,29.98,North,5,8.0,15.0,96,0.00,,,0.46,0,Wunderground v.1.15,2013-04-10 03:56:00,
2013-04-09 22:57:00,42.8,41.7,29.98,North,351,9.0,15.0,96,0.00,,,0.46,0,Wunderground v.1.15,2013-04-10 03:57:00,
2013-04-09 23:00:00,42.7,41.6,29.98,North,10,9.0,9.0,96,0.00,,,0.46,0,Wunderground v.1.15,2013-04-10 04:00:00,
2013-04-09 23:01:00,42.7,41.6,29.99,North,9,9.0,12.0,96,0.00,,,0.46,0,Wunderground v.1.15,2013-04-10 04:01:00,
2013-04-09 23:02:00,42.7,41.6,29.99,North,5,9.0,12.0,96,0.00,,,0.46,0,Wunderground v.1.15,2013-04-10 04:02:00,
2013-04-09 23:03:00,42.7,41.6,29.99,North,9,9.0,12.0,96,0.00,,,0.46,0,Wunderground v.1.15,2013-04-10 04:03:00,
2013-04-09 23:06:00,42.7,41.6,29.99,North,5,9.0,12.0,96,0.00,,,0.46,0,Wunderground v.1.15,2013-04-10 04:06:00,
2013-04-09 23:07:00,42.6,41.5,29.99,North,11,9.0,12.0,96,0.00,,,0.46,0,Wunderground v.1.15,2013-04-10 04:07:00,
2013-04-09 23:09:00,42.6,41.5,29.99,NNE,17,8.0,12.0,96,0.00,,,0.46,0,Wunderground v.1.15,2013-04-10 04:09:00,
2013-04-09 23:13:00,42.6,41.5,29.98,NNE,28,8.0,8.0,96,0.00,,,0.46,0,Wunderground v.1.15,2013-04-10 04:13:00,
2013-04-09 23:14:00,42.5,41.4,29.98,NNE,24,8.0,8.0,96,0.00,,,0.46,0,Wunderground v.1.15,2013-04-10 04:14:00,
2013-04-09 23:15:00,42.5,41.4,29.98,NNE,30,8.0,8.0,96,0.00,,,0.46,0,Wunderground v.1.15,2013-04-10 04:15:00,
2013-04-09 23:20:00,42.5,41.4,29.97,NE,36,9.0,12.0,96,0.00,,,0.46,0,Wunderground v.1.15,2013-04-10 04:20:00,
2013-04-09 23:21:00,42.5,41.4,29.97,NNE,17,9.0,12.0,96,0.00,,,0.46,0,Wunderground v.1.15,2013-04-10 04:21:00,
2013-04-09 23:24:00,42.4,41.3,29.97,NNE,26,9.0,13.0,96,0.00,,,0.46,0,Wunderground v.1.15,2013-04-10 04:24:00,
2013-04-09 23:25:00,42.4,41.3,29.97,NNE,24,9.0,13.0,96,0.00,,,0.46,0,Wunderground v.1.15,2013-04-10 04:25:00,
2013-04-09 23:26:00,42.4,41.3,29.98,NNE,28,10.0,13.0,96,0.00,,,0.46,0,Wunderground v.1.15,2013-04-10 04:26:00,
2013-04-09 23:30:00,42.4,41.3,29.98,NE,40,10.0,10.0,96,0.00,,,0.46,0,Wunderground v.1.15,2013-04-10 04:30:00,
2013-04-09 23:32:00,42.4,41.3,29.98,NE,44,10.0,10.0,96,0.00,,,0.46,0,Wunderground v.1.15,2013-04-10 04:32:00,
2013-04-09 23:33:00,42.4,41.3,29.98,ENE,61,10.0,10.0,96,0.00,,,0.46,0,Wunderground v.1.15,2013-04-10 04:33:00,
2013-04-09 23:36:00,42.4,41.3,29.98,NE,37,9.0,10.0,96,0.00,,,0.46,0,Wunderground v.1.15,2013-04-10 04:36:00,
2013-04-09 23:39:00,42.4,41.3,29.98,NNE,30,8.0,10.0,96,0.00,,,0.46,0,Wunderground v.1.15,2013-04-10 04:39:00,
2013-04-09 23:40:00,42.4,41.3,29.99,North,10,8.0,8.0,96,0.00,,,0.46,0,Wunderground v.1.15,2013-04-10 04:40:00,
2013-04-09 23:43:00,42.4,41.3,30.00,North,5,8.0,9.0,96,0.00,,,0.46,0,Wunderground v.1.15,2013-04-10 04:43:00,
2013-04-09 23:45:00,42.5,41.4,30.00,North,5,8.0,9.0,96,0.00,,,0.46,0,Wunderground v.1.15,2013-04-10 04:45:00,
2013-04-09 23:47:00,42.5,41.4,30.00,North,5,8.0,9.0,96,0.00,,,0.46,0,Wunderground v.1.15,2013-04-10 04:47:00,
2013-04-09 23:48:00,42.5,41.4,30.00,North,355,9.0,12.0,96,0.00,,,0.46,0,Wunderground v.1.15,2013-04-10 04:48:00,
2013-04-09 23:49:00,42.5,41.4,30.00,North,360,9.0,12.0,96,0.00,,,0.46,0,Wunderground v.1.15,2013-04-10 04:49:00,
2013-04-09 23:51:00,42.5,41.4,30.02,NNW,342,9.0,10.0,96,0.00,,,0.46,0,Wunderground v.1.15,2013-04-10 04:51:00,
2013-04-09 23:52:00,42.5,41.4,30.03,NNW,347,9.0,10.0,96,0.00,,,0.46,0,Wunderground v.1.15,2013-04-10 04:52:00,
2013-04-09 23:55:00,42.5,41.2,30.04,North,360,9.0,10.0,95,0.00,,,0.46,0,Wunderground v.1.15,2013-04-10 04:55:00,
2013-04-09 23:59:00,42.5,41.2,30.05,NNW,337,9.0,10.0,95,0.00,,,0.46,0,Wunderground v.1.15,2013-04-10 04:59:00,